FW0860 Weather Reports


Display with metric or nautical units.
time (UTC)temp
F
wind
direction
speed
MPH
gust
MPH
rain 1hr
in
rain 24hr
in
rain mn
in
humidity
%
barometer
mb
20260902005333 99 98 1.0 2.0 0.00 0.00 0.00 36 1010.3
20260902005234 99 98 1.0 2.0 0.00 0.00 0.00 36 1010.3
20260902005116 99 98 0.0 2.0 0.00 0.00 0.00 37 1010.2
20260902005018 100 98 0.0 2.0 0.00 0.00 0.00 36 1010.2
20260902004933 100 98 0.0 2.0 0.00 0.00 0.00 36 1010.2
20260902004833 100 98 0.0 2.0 0.00 0.00 0.00 35 1010.3
20260902004741 100 98 0.0 2.0 0.00 0.00 0.00 36 1010.3
20260902004623 100 98 1.0 2.0 0.00 0.00 0.00 36 1010.2
20260902004523 100 98 1.0 2.0 0.00 0.00 0.00 35 1010.4
20260902004426 100 98 0.0 2.0 0.00 0.00 0.00 36 1010.3
20260902004318 101 98 0.0 2.0 0.00 0.00 0.00 35 1010.3
20260902004228 101 98 0.0 5.0 0.00 0.00 0.00 35 1010.3
20260902004158 101 98 0.0 5.0 0.00 0.00 0.00 36 1010.3
20260902004019 101 98 0.0 5.0 0.00 0.00 0.00 36 1010.3
20260902003940 101 98 1.0 5.0 0.00 0.00 0.00 36 1010.3
20260902003829 101 98 1.0 5.0 0.00 0.00 0.00 36 1010.3
20260902003729 101 98 1.0 5.0 0.00 0.00 0.00 36 1010.4
20260902003637 101 98 1.0 5.0 0.00 0.00 0.00 36 1010.4
20260902003523 101 98 1.0 5.0 0.00 0.00 0.00 36 1010.3
20260902003426 100 99 1.0 4.0 0.00 0.00 0.00 36 1010.3
20260902003338 100 100 1.0 2.0 0.00 0.00 0.00 37 1010.3
20260902003217 100 100 0.0 2.0 0.00 0.00 0.00 36 1010.4
20260902003118 100 100 0.0 2.0 0.00 0.00 0.00 37 1010.4
20260902003047 100 100 0.0 2.0 0.00 0.00 0.00 37 1010.5
20260902002934 100 100 0.0 2.0 0.00 0.00 0.00 37 1010.5
20260902002817 100 99 0.0 2.0 0.00 0.00 0.00 36 1010.4
20260902002727 100 99 0.0 2.0 0.00 0.00 0.00 37 1010.4
20260902002630 100 99 0.0 2.0 0.00 0.00 0.00 37 1010.5
20260902002533 100 99 0.0 2.0 0.00 0.00 0.00 37 1010.5
20260902002441 100 99 0.0 2.0 0.00 0.00 0.00 36 1010.5
20260902002347 100 99 0.0 2.0 0.00 0.00 0.00 36 1010.5
20260902002227 100 99 0.0 2.0 0.00 0.00 0.00 36 1010.5
20260902002117 99 99 0.0 4.0 0.00 0.00 0.00 36 1010.5
20260902002019 99 99 0.0 4.0 0.00 0.00 0.00 37 1010.5
20260902001921 99 99 0.0 4.0 0.00 0.00 0.00 36 1010.5
20260902001831 99 99 0.0 4.0 0.00 0.00 0.00 37 1010.5
20260902001716 100 98 0.0 5.0 0.00 0.00 0.00 37 1010.5
20260902001637 100 98 0.0 5.0 0.00 0.00 0.00 36 1010.5
20260902001525 100 98 0.0 5.0 0.00 0.00 0.00 36 1010.6
20260902001448 101 98 1.0 5.0 0.00 0.00 0.00 36 1010.4
20260902001336 101 98 1.0 5.0 0.00 0.00 0.00 36 1010.4
20260902001219 101 98 1.0 5.0 0.00 0.00 0.00 35 1010.6
20260902001141 101 98 1.0 5.0 0.00 0.00 0.00 35 1010.5
20260902001049 101 98 1.0 5.0 0.00 0.00 0.00 35 1010.6
20260902001000 101 98 1.0 5.0 0.00 0.00 0.00 35 1010.6
20260902000820 101 98 0.0 4.0 0.00 0.00 0.00 35 1010.5
20260902000616 101 98 1.0 4.0 0.00 0.00 0.00 35 1010.5
20260902000525 101 98 1.0 4.0 0.00 0.00 0.00 35 1010.5
20260902000429 101 98 2.0 4.0 0.00 0.00 0.00 34 1010.5
20260902000330 101 98 2.0 4.0 0.00 0.00 0.00 35 1010.6
20260902000241 101 98 2.0 4.0 0.00 0.00 0.00 35 1010.6
20260902000123 100 98 2.0 4.0 0.00 0.00 0.00 35 1010.6
20260902000045 100 98 1.0 3.0 0.00 0.00 0.00 35 1010.6
20260901235934 101 98 1.0 3.0 0.00 0.00 0.00 35 1010.6
20260901235834 101 98 1.0 3.0 0.00 0.00 0.00 35 1010.6
20260901235715 101 98 1.0 4.0 0.00 0.00 0.00 35 1010.6
20260901235629 101 98 1.0 4.0 0.00 0.00 0.00 35 1010.6
20260901235530 101 98 1.0 4.0 0.00 0.00 0.00 35 1010.6
20260901235431 101 98 1.0 4.0 0.00 0.00 0.00 34 1010.6
20260901235340 102 98 1.0 4.0 0.00 0.00 0.00 34 1010.7
20260901235223 102 95 1.0 4.0 0.00 0.00 0.00 36 1010.7
20260901235123 102 95 1.0 4.0 0.00 0.00 0.00 36 1010.7
20260901235033 102 95 1.0 4.0 0.00 0.00 0.00 35 1010.7
20260901234916 102 95 1.0 4.0 0.00 0.00 0.00 34 1010.6
20260901234847 102 97 1.0 2.0 0.00 0.00 0.00 34 1010.7
20260901234749 102 97 0.0 4.0 0.00 0.00 0.00 34 1010.7
20260901234638 102 97 1.0 4.0 0.00 0.00 0.00 35 1010.7
20260901234539 102 97 1.0 4.0 0.00 0.00 0.00 35 1010.7
20260901234448 101 97 1.0 4.0 0.00 0.00 0.00 36 1010.8
20260901234328 101 97 1.0 4.0 0.00 0.00 0.00 35 1010.8
20260901234236 102 97 1.0 4.0 0.00 0.00 0.00 34 1010.8
20260901234145 102 97 1.0 4.0 0.00 0.00 0.00 35 1010.8
20260901234025 102 97 2.0 4.0 0.00 0.00 0.00 36 1010.7
20260901233934 101 97 2.0 4.0 0.00 0.00 0.00 36 1010.7
20260901233835 101 98 1.0 4.0 0.00 0.00 0.00 36 1010.7
20260901233716 101 98 1.0 3.0 0.00 0.00 0.00 36 1010.7
20260901233624 100 98 1.0 3.0 0.00 0.00 0.00 36 1010.8
20260901233554 100 98 1.0 5.0 0.00 0.00 0.00 35 1010.8
20260901233418 101 98 0.0 5.0 0.00 0.00 0.00 35 1010.8
20260901233322 101 98 1.0 5.0 0.00 0.00 0.00 34 1010.7
20260901233230 101 98 1.0 5.0 0.00 0.00 0.00 34 1010.7
20260901233133 102 98 1.0 5.0 0.00 0.00 0.00 34 1010.7
20260901233016 102 97 1.0 5.0 0.00 0.00 0.00 35 1010.8
20260901232926 102 97 1.0 5.0 0.00 0.00 0.00 35 1010.8
20260901232833 102 97 2.0 5.0 0.00 0.00 0.00 35 1010.8
20260901232802 102 98 2.0 5.0 0.00 0.00 0.00 35 1010.8
20260901232622 102 105 1.0 5.0 0.00 0.00 0.00 35 1010.8
20260901232554 102 106 1.0 3.0 0.00 0.00 0.00 34 1010.8
20260901232433 102 106 1.0 4.0 0.00 0.00 0.00 35 1010.8
20260901232333 102 106 1.0 4.0 0.00 0.00 0.00 35 1010.9
20260901232241 102 106 0.0 4.0 0.00 0.00 0.00 37 1010.9
20260901232127 102 106 0.0 4.0 0.00 0.00 0.00 37 1010.8
20260901232049 102 106 1.0 4.0 0.00 0.00 0.00 36 1011.0
20260901231937 102 106 1.0 4.0 0.00 0.00 0.00 36 1011.0
20260901231838 102 106 0.0 4.0 0.00 0.00 0.00 37 1011.0
20260901231718 101 106 1.0 4.0 0.00 0.00 0.00 36 1011.0
20260901231627 101 106 1.0 4.0 0.00 0.00 0.00 37 1011.0
20260901231528 101 106 0.0 2.0 0.00 0.00 0.00 37 1011.0
20260901231434 101 106 0.0 2.0 0.00 0.00 0.00 36 1011.0
20260901231317 101 106 0.0 2.0 0.00 0.00 0.00 36 1011.0
20260901231226 101 106 0.0 2.0 0.00 0.00 0.00 37 1011.0
20260901231127 100 106 0.0 2.0 0.00 0.00 0.00 37 1011.0
20260901231037 100 106 1.0 2.0 0.00 0.00 0.00 38 1011.0
20260901230919 100 106 0.0 2.0 0.00 0.00 0.00 37 1011.0
20260901230824 100 106 1.0 2.0 0.00 0.00 0.00 36 1011.1
20260901230754 100 106 1.0 3.0 0.00 0.00 0.00 37 1011.1
20260901230701 100 106 1.0 3.0 0.00 0.00 0.00 37 1011.1
20260901230558 100 106 1.0 3.0 0.00 0.00 0.00 36 1011.2
20260901230426 100 106 0.0 3.0 0.00 0.00 0.00 36 1011.2
20260901230346 100 106 0.0 4.0 0.00 0.00 0.00 37 1011.2
20260901230235 100 106 1.0 4.0 0.00 0.00 0.00 37 1011.2
20260901230118 100 106 1.0 4.0 0.00 0.00 0.00 36 1011.2
20260901230035 100 106 1.0 4.0 0.00 0.00 0.00 37 1011.2
20260901225954 100 106 1.0 4.0 0.00 0.00 0.00 36 1011.3
20260901225901 100 106 1.0 4.0 0.00 0.00 0.00 36 1011.3
20260901225722 100 106 1.0 4.0 0.00 0.00 0.00 36 1011.3
20260901225625 100 106 1.0 4.0 0.00 0.00 0.00 36 1011.3
20260901225534 101 106 1.0 4.0 0.00 0.00 0.00 36 1011.3
20260901225415 101 105 1.0 4.0 0.00 0.00 0.00 36 1011.3
20260901225342 101 105 2.0 4.0 0.00 0.00 0.00 35 1011.3
20260901225229 101 105 2.0 4.0 0.00 0.00 0.00 36 1011.3
20260901225132 102 105 1.0 4.0 0.00 0.00 0.00 35 1011.3
20260901225034 101 105 1.0 4.0 0.00 0.00 0.00 36 1011.4
20260901224915 101 103 1.0 4.0 0.00 0.00 0.00 36 1011.4
20260901224824 101 103 1.0 4.0 0.00 0.00 0.00 36 1011.3
20260901224733 101 103 1.0 4.0 0.00 0.00 0.00 36 1011.3
20260901224641 101 103 1.0 4.0 0.00 0.00 0.00 36 1011.3
20260901224522 101 103 1.0 4.0 0.00 0.00 0.00 36 1011.4
20260901224424 101 103 2.0 4.0 0.00 0.00 0.00 36 1011.4
20260901224326 101 102 2.0 4.0 0.00 0.00 0.00 36 1011.4
20260901224235 101 103 2.0 4.0 0.00 0.00 0.00 36 1011.4
20260901224122 102 100 1.0 3.0 0.00 0.00 0.00 35 1011.5
20260901224025 102 98 1.0 3.0 0.00 0.00 0.00 36 1011.4
20260901223925 101 94 1.0 3.0 0.00 0.00 0.00 38 1011.4
20260901223835 101 94 1.0 3.0 0.00 0.00 0.00 37 1011.4
20260901223717 101 94 0.0 4.0 0.00 0.00 0.00 36 1011.4
20260901223639 101 94 0.0 7.0 0.00 0.00 0.00 37 1011.4
20260901223532 100 94 1.0 7.0 0.00 0.00 0.00 37 1011.4
20260901223433 101 94 1.0 7.0 0.00 0.00 0.00 36 1011.4
20260901223339 101 94 2.0 7.0 0.00 0.00 0.00 36 1011.5
20260901223220 101 94 1.0 7.0 0.00 0.00 0.00 36 1011.5
20260901223122 101 94 1.0 7.0 0.00 0.00 0.00 36 1011.5
20260901223024 101 94 2.0 7.0 0.00 0.00 0.00 35 1011.5
20260901222934 102 93 2.0 7.0 0.00 0.00 0.00 36 1011.5
20260901222821 102 70 3.0 7.0 0.00 0.00 0.00 36 1011.5
20260901222722 102 70 2.0 5.0 0.00 0.00 0.00 37 1011.5
20260901222633 102 70 1.0 5.0 0.00 0.00 0.00 36 1011.5
20260901222534 102 70 1.0 8.0 0.00 0.00 0.00 36 1011.6
20260901222417 102 109 1.0 8.0 0.00 0.00 0.00 37 1011.4
20260901222321 102 109 0.0 8.0 0.00 0.00 0.00 36 1011.5
20260901222231 102 109 0.0 8.0 0.00 0.00 0.00 36 1011.5
20260901222134 102 109 1.0 8.0 0.00 0.00 0.00 37 1011.5
20260901222036 102 109 1.0 8.0 0.00 0.00 0.00 37 1011.6
20260901221916 102 109 2.0 8.0 0.00 0.00 0.00 37 1011.6
20260901221825 102 109 2.0 8.0 0.00 0.00 0.00 38 1011.6
20260901221733 101 112 1.0 4.0 0.00 0.00 0.00 38 1011.6
20260901221634 101 112 1.0 5.0 0.00 0.00 0.00 37 1011.6
20260901221516 101 112 2.0 5.0 0.00 0.00 0.00 37 1011.6
20260901221445 101 112 2.0 5.0 0.00 0.00 0.00 37 1011.8
20260901221327 101 112 1.0 5.0 0.00 0.00 0.00 37 1011.8
20260901221236 101 112 1.0 5.0 0.00 0.00 0.00 38 1011.8
20260901221122 101 112 1.0 5.0 0.00 0.00 0.00 39 1011.7
20260901221024 101 112 1.0 5.0 0.00 0.00 0.00 37 1011.7
20260901220927 101 112 1.0 5.0 0.00 0.00 0.00 37 1011.7
20260901220836 101 112 2.0 5.0 0.00 0.00 0.00 37 1011.7
20260901220737 101 112 1.0 5.0 0.00 0.00 0.00 37 1011.8
20260901220618 101 110 0.0 6.0 0.00 0.00 0.00 37 1011.8
20260901220527 102 110 1.0 6.0 0.00 0.00 0.00 38 1011.8
20260901220318 102 110 2.0 6.0 0.00 0.00 0.00 37 1011.8
20260901220220 102 110 2.0 6.0 0.00 0.00 0.00 38 1011.9
20260901220129 101 110 1.0 6.0 0.00 0.00 0.00 38 1011.9
20260901220043 101 111 1.0 6.0 0.00 0.00 0.00 37 1011.9
20260901215933 102 111 2.0 6.0 0.00 0.00 0.00 38 1011.9
20260901215826 101 111 2.0 6.0 0.00 0.00 0.00 37 1011.9
20260901215727 101 111 1.0 4.0 0.00 0.00 0.00 37 1012.0
20260901215656 101 111 1.0 4.0 0.00 0.00 0.00 37 1012.0
20260901215516 101 112 2.0 4.0 0.00 0.00 0.00 38 1012.0
20260901215418 100 112 1.0 6.0 0.00 0.00 0.00 38 1012.1
20260901215321 100 112 1.0 10.0 0.00 0.00 0.00 37 1011.9
20260901215229 100 111 1.0 10.0 0.00 0.00 0.00 37 1012.0
20260901215155 100 111 1.0 10.0 0.00 0.00 0.00 37 1012.0
20260901215042 100 111 1.0 10.0 0.00 0.00 0.00 37 1012.0
20260901214944 101 111 1.0 10.0 0.00 0.00 0.00 37 1012.1
20260901214833 101 111 1.0 10.0 0.00 0.00 0.00 37 1012.1
20260901214733 101 111 2.0 10.0 0.00 0.00 0.00 37 1012.2
20260901214703 101 111 3.0 10.0 0.00 0.00 0.00 37 1012.1
20260901214523 101 111 4.0 10.0 0.00 0.00 0.00 37 1012.0
20260901214455 101 116 2.0 9.0 0.00 0.00 0.00 37 1012.0
20260901214320 101 122 0.0 4.0 0.00 0.00 0.00 38 1012.1
20260901214222 101 122 0.0 4.0 0.00 0.00 0.00 38 1012.2
20260901214123 101 122 1.0 4.0 0.00 0.00 0.00 37 1012.2
20260901214033 101 122 2.0 4.0 0.00 0.00 0.00 37 1012.2
20260901213933 102 122 1.0 3.0 0.00 0.00 0.00 37 1012.2
20260901213833 102 122 0.0 6.0 0.00 0.00 0.00 38 1012.3
20260901213744 101 122 0.0 6.0 0.00 0.00 0.00 40 1012.3
20260901213625 101 122 1.0 6.0 0.00 0.00 0.00 40 1012.4
20260901213533 100 122 0.0 6.0 0.00 0.00 0.00 39 1012.4
20260901213433 100 122 0.0 7.0 0.00 0.00 0.00 38 1012.4
20260901213333 100 122 1.0 7.0 0.00 0.00 0.00 37 1012.4
20260901213241 100 122 1.0 7.0 0.00 0.00 0.00 38 1012.4
20260901213126 100 122 2.0 7.0 0.00 0.00 0.00 38 1012.5
20260901213027 100 122 2.0 7.0 0.00 0.00 0.00 38 1012.5
20260901212936 100 122 2.0 7.0 0.00 0.00 0.00 38 1012.5
20260901212817 100 122 3.0 7.0 0.00 0.00 0.00 38 1012.6
20260901212719 100 122 3.0 7.0 0.00 0.00 0.00 38 1012.6
20260901212627 100 122 3.0 7.0 0.00 0.00 0.00 38 1012.6
20260901212527 100 123 2.0 6.0 0.00 0.00 0.00 38 1012.5
20260901212442 100 123 1.0 4.0 0.00 0.00 0.00 38 1012.5
20260901212325 100 123 1.0 4.0 0.00 0.00 0.00 38 1012.6
20260901212226 100 123 2.0 4.0 0.00 0.00 0.00 39 1012.6
20260901212128 100 123 2.0 4.0 0.00 0.00 0.00 39 1012.5
20260901212037 99 123 1.0 6.0 0.00 0.00 0.00 39 1012.5
20260901211920 99 123 0.0 6.0 0.00 0.00 0.00 40 1012.6
20260901211825 99 124 0.0 6.0 0.00 0.00 0.00 39 1012.6
20260901211736 99 124 0.0 6.0 0.00 0.00 0.00 39 1012.6
20260901211642 99 124 0.0 6.0 0.00 0.00 0.00 38 1012.6
20260901211515 100 124 0.0 6.0 0.00 0.00 0.00 39 1012.7
20260901211425 100 123 1.0 6.0 0.00 0.00 0.00 39 1012.7
20260901211326 100 123 2.0 6.0 0.00 0.00 0.00 38 1012.7
20260901211237 101 124 3.0 6.0 0.00 0.00 0.00 37 1012.7
20260901211143 101 122 1.0 6.0 0.00 0.00 0.00 38 1012.7
20260901211023 101 120 1.0 8.0 0.00 0.00 0.00 38 1012.7
20260901210934 101 120 1.0 8.0 0.00 0.00 0.00 38 1012.7
20260901210816 101 120 1.0 8.0 0.00 0.00 0.00 38 1012.8
20260901210718 101 120 2.0 8.0 0.00 0.00 0.00 38 1012.7
20260901210620 101 120 1.0 8.0 0.00 0.00 0.00 38 1012.8
20260901210534 101 120 0.0 8.0 0.00 0.00 0.00 38 1012.8
20260901210416 100 120 1.0 8.0 0.00 0.00 0.00 38 1012.7
20260901210339 100 120 2.0 8.0 0.00 0.00 0.00 40 1012.7
20260901210305 100 120 3.0 8.0 0.00 0.00 0.00 40 1012.9
20260901210116 99 124 2.0 6.0 0.00 0.00 0.00 39 1012.9
20260901210038 99 125 3.0 6.0 0.00 0.00 0.00 39 1012.9
20260901205933 99 124 3.0 6.0 0.00 0.00 0.00 39 1012.9
20260901205817 99 124 3.0 6.0 0.00 0.00 0.00 39 1013.0
20260901205746 99 124 2.0 5.0 0.00 0.00 0.00 38 1013.0
20260901205626 100 124 3.0 5.0 0.00 0.00 0.00 38 1013.0
20260901205527 100 124 2.0 5.0 0.00 0.00 0.00 38 1013.0
20260901205437 100 124 1.0 3.0 0.00 0.00 0.00 40 1013.0
20260901205323 100 124 0.0 6.0 0.00 0.00 0.00 42 1013.0
20260901205254 99 124 0.0 6.0 0.00 0.00 0.00 41 1013.0
20260901205135 99 124 0.0 6.0 0.00 0.00 0.00 40 1013.0
20260901205032 99 124 1.0 6.0 0.00 0.00 0.00 40 1013.0
20260901204918 99 124 1.0 6.0 0.00 0.00 0.00 40 1013.1
20260901204820 99 124 1.0 6.0 0.00 0.00 0.00 40 1013.1
20260901204723 98 124 1.0 6.0 0.00 0.00 0.00 40 1013.2
20260901204653 98 124 2.0 6.0 0.00 0.00 0.00 39 1013.2
20260901204517 99 124 3.0 6.0 0.00 0.00 0.00 39 1013.2
20260901204446 99 124 3.0 6.0 0.00 0.00 0.00 40 1013.2
20260901204325 98 124 3.0 6.0 0.00 0.00 0.00 40 1013.2
20260901204255 98 124 2.0 6.0 0.00 0.00 0.00 41 1013.2
20260901204116 98 123 2.0 6.0 0.00 0.00 0.00 40 1013.2
20260901204017 98 123 3.0 6.0 0.00 0.00 0.00 39 1013.3
20260901203928 99 123 4.0 6.0 0.00 0.00 0.00 40 1013.2
20260901203833 99 122 3.0 6.0 0.00 0.00 0.00 39 1013.2
20260901203741 99 122 3.0 6.0 0.00 0.00 0.00 39 1013.3
20260901203623 99 116 2.0 5.0 0.00 0.00 0.00 39 1013.2
20260901203525 99 113 2.0 6.0 0.00 0.00 0.00 39 1013.3
20260901203427 99 112 1.0 6.0 0.00 0.00 0.00 38 1013.3
20260901203336 100 110 0.0 6.0 0.00 0.00 0.00 37 1013.3
20260901203222 101 110 1.0 6.0 0.00 0.00 0.00 38 1013.2
20260901203122 101 110 1.0 6.0 0.00 0.00 0.00 38 1013.3
20260901203053 101 110 1.0 6.0 0.00 0.00 0.00 38 1013.3
20260901202933 101 110 1.0 6.0 0.00 0.00 0.00 41 1013.3
20260901202832 101 110 2.0 6.0 0.00 0.00 0.00 40 1013.4
20260901202742 100 111 1.0 6.0 0.00 0.00 0.00 40 1013.4
20260901202621 100 112 0.0 4.0 0.00 0.00 0.00 41 1013.4
20260901202535 100 112 0.0 4.0 0.00 0.00 0.00 41 1013.4
20260901202417 100 112 1.0 4.0 0.00 0.00 0.00 39 1013.5
20260901202325 100 112 1.0 4.0 0.00 0.00 0.00 40 1013.5
20260901202227 99 112 1.0 4.0 0.00 0.00 0.00 41 1013.4
20260901202130 98 113 1.0 4.0 0.00 0.00 0.00 41 1013.5
20260901202017 98 113 1.0 8.0 0.00 0.00 0.00 40 1013.5
20260901201923 98 113 2.0 8.0 0.00 0.00 0.00 40 1013.6
20260901201824 98 113 1.0 8.0 0.00 0.00 0.00 39 1013.6
20260901201734 98 113 1.0 8.0 0.00 0.00 0.00 39 1013.6
20260901201634 98 113 1.0 8.0 0.00 0.00 0.00 39 1013.7
20260901201516 99 113 1.0 8.0 0.00 0.00 0.00 39 1013.7
20260901201417 99 113 2.0 8.0 0.00 0.00 0.00 41 1013.8
20260901201346 98 113 2.0 8.0 0.00 0.00 0.00 39 1013.7
20260901201218 98 113 3.0 8.0 0.00 0.00 0.00 39 1013.7
20260901201120 98 113 2.0 4.0 0.00 0.00 0.00 40 1013.7
20260901201021 98 110 1.0 3.0 0.00 0.00 0.00 42 1013.7
20260901200931 98 110 1.0 3.0 0.00 0.00 0.00 40 1013.7
20260901200852 98 110 1.0 3.0 0.00 0.00 0.00 40 1013.6
20260901200740 98 110 0.0 3.0 0.00 0.00 0.00 40 1013.7
20260901200627 98 110 1.0 4.0 0.00 0.00 0.00 40 1013.6
20260901200529 98 110 1.0 4.0 0.00 0.00 0.00 40 1013.6
20260901200431 98 110 1.0 4.0 0.00 0.00 0.00 40 1013.6
20260901200338 98 110 1.0 4.0 0.00 0.00 0.00 39 1013.6
20260901200240 98 110 1.0 4.0 0.00 0.00 0.00 40 1013.6
20260901200203 98 110 1.0 4.0 0.00 0.00 0.00 41 1013.5
20260901200056 98 110 1.0 4.0 0.00 0.00 0.00 42 1013.7
20260901195926 97 110 2.0 7.0 0.00 0.00 0.00 41 1013.8
20260901195833 97 110 2.0 7.0 0.00 0.00 0.00 41 1013.8
20260901195742 97 110 1.0 7.0 0.00 0.00 0.00 41 1013.8
20260901195624 97 110 0.0 7.0 0.00 0.00 0.00 41 1013.8
20260901195526 97 110 1.0 7.0 0.00 0.00 0.00 40 1013.8
20260901195457 97 110 1.0 7.0 0.00 0.00 0.00 40 1013.8
20260901195338 97 110 2.0 7.0 0.00 0.00 0.00 40 1013.8
20260901195230 97 110 3.0 7.0 0.00 0.00 0.00 40 1013.8
20260901195151 98 109 2.0 6.0 0.00 0.00 0.00 39 1013.9
20260901195038 98 96 1.0 11.0 0.00 0.00 0.00 39 1013.9
20260901194921 99 95 1.0 11.0 0.00 0.00 0.00 38 1013.8
20260901194824 99 94 2.0 11.0 0.00 0.00 0.00 37 1013.9
20260901194733 100 94 2.0 11.0 0.00 0.00 0.00 37 1013.9
20260901194634 100 84 2.0 11.0 0.00 0.00 0.00 38 1013.9
20260901194520 100 75 2.0 11.0 0.00 0.00 0.00 38 1013.9
20260901194428 100 68 2.0 11.0 0.00 0.00 0.00 38 1013.9
20260901194329 99 60 2.0 11.0 0.00 0.00 0.00 42 1013.9
20260901194233 98 59 1.0 11.0 0.00 0.00 0.00 41 1013.9
20260901194142 98 134 0.0 7.0 0.00 0.00 0.00 39 1014.0
20260901194024 98 134 2.0 7.0 0.00 0.00 0.00 39 1014.0
20260901193933 99 134 3.0 7.0 0.00 0.00 0.00 39 1014.0
20260901193841 99 134 3.0 5.0 0.00 0.00 0.00 39 1014.0
20260901193722 99 134 2.0 4.0 0.00 0.00 0.00 40 1014.0
20260901193623 99 134 1.0 4.0 0.00 0.00 0.00 40 1014.1
20260901193534 99 134 1.0 4.0 0.00 0.00 0.00 41 1014.1
20260901193418 98 134 1.0 4.0 0.00 0.00 0.00 41 1014.0
20260901193318 97 134 1.0 4.0 0.00 0.00 0.00 43 1014.1
20260901193233 97 134 1.0 4.0 0.00 0.00 0.00 41 1014.1
20260901193134 98 134 1.0 4.0 0.00 0.00 0.00 39 1014.2
20260901193039 98 134 2.0 4.0 0.00 0.00 0.00 40 1014.1
20260901192921 99 134 1.0 4.0 0.00 0.00 0.00 41 1014.2
20260901192824 99 134 1.0 4.0 0.00 0.00 0.00 39 1014.2
20260901192736 99 134 1.0 5.0 0.00 0.00 0.00 40 1014.2
20260901192620 98 134 1.0 5.0 0.00 0.00 0.00 42 1014.2
20260901192522 97 134 1.0 5.0 0.00 0.00 0.00 43 1014.2
20260901192425 97 134 2.0 5.0 0.00 0.00 0.00 41 1014.3
20260901192335 97 134 2.0 5.0 0.00 0.00 0.00 42 1014.3
20260901192215 96 134 1.0 5.0 0.00 0.00 0.00 41 1014.3
20260901192118 96 134 1.0 5.0 0.00 0.00 0.00 41 1014.4
20260901192024 97 134 2.0 5.0 0.00 0.00 0.00 40 1014.4
20260901191935 97 134 2.0 5.0 0.00 0.00 0.00 40 1014.4
20260901191833 97 135 1.0 5.0 0.00 0.00 0.00 44 1014.3
20260901191740 97 135 0.0 5.0 0.00 0.00 0.00 41 1014.4
20260901191643 97 135 2.0 5.0 0.00 0.00 0.00 42 1014.4
20260901191521 96 135 2.0 6.0 0.00 0.00 0.00 41 1014.4
20260901191429 96 135 1.0 6.0 0.00 0.00 0.00 43 1014.4
20260901191335 96 135 0.0 6.0 0.00 0.00 0.00 43 1014.4
20260901191216 96 135 1.0 6.0 0.00 0.00 0.00 41 1014.6
20260901191116 97 135 2.0 6.0 0.00 0.00 0.00 42 1014.5
20260901191024 96 135 3.0 6.0 0.00 0.00 0.00 42 1014.6
20260901190934 96 135 3.0 6.0 0.00 0.00 0.00 43 1014.6
20260901190836 96 135 3.0 6.0 0.00 0.00 0.00 44 1014.6
20260901190721 95 135 2.0 6.0 0.00 0.00 0.00 46 1014.5
20260901190623 94 136 0.0 5.0 0.00 0.00 0.00 44 1014.6
20260901190533 95 136 0.0 5.0 0.00 0.00 0.00 44 1014.6
20260901190435 95 136 1.0 5.0 0.00 0.00 0.00 43 1014.6
20260901190334 95 136 1.0 5.0 0.00 0.00 0.00 44 1014.6
20260901190215 95 136 1.0 6.0 0.00 0.00 0.00 43 1014.6
20260901190110 95 136 1.0 6.0 0.00 0.00 0.00 43 1014.7
20260901185934 96 136 3.0 6.0 0.00 0.00 0.00 44 1014.6
20260901185836 96 136 2.0 6.0 0.00 0.00 0.00 44 1014.6
20260901185743 96 136 1.0 6.0 0.00 0.00 0.00 43 1014.6
20260901185625 96 136 1.0 6.0 0.00 0.00 0.00 43 1014.6
20260901185528 96 136 1.0 6.0 0.00 0.00 0.00 43 1014.7
20260901185442 96 136 2.0 6.0 0.00 0.00 0.00 43 1014.7
20260901185325 96 136 3.0 6.0 0.00 0.00 0.00 44 1014.6
20260901185228 96 136 2.0 5.0 0.00 0.00 0.00 44 1014.7
20260901185136 96 136 1.0 5.0 0.00 0.00 0.00 43 1014.7
20260901185016 96 136 1.0 4.0 0.00 0.00 0.00 43 1014.8
20260901184925 97 136 2.0 4.0 0.00 0.00 0.00 42 1014.8
20260901184831 97 136 1.0 4.0 0.00 0.00 0.00 43 1014.8
20260901184733 97 136 1.0 4.0 0.00 0.00 0.00 43 1014.9
20260901184640 97 136 1.0 4.0 0.00 0.00 0.00 45 1014.8
20260901184523 97 136 1.0 5.0 0.00 0.00 0.00 43 1014.9
20260901184425 97 136 1.0 5.0 0.00 0.00 0.00 42 1014.9
20260901184355 97 136 0.0 5.0 0.00 0.00 0.00 42 1014.9
20260901184221 98 136 1.0 5.0 0.00 0.00 0.00 43 1014.8
20260901184119 97 136 1.0 5.0 0.00 0.00 0.00 43 1014.8
20260901184029 97 136 1.0 5.0 0.00 0.00 0.00 44 1014.8
20260901183930 96 136 1.0 5.0 0.00 0.00 0.00 45 1014.8
20260901183839 97 136 2.0 5.0 0.00 0.00 0.00 43 1014.8
20260901183722 96 136 1.0 5.0 0.00 0.00 0.00 45 1014.8
20260901183624 96 136 0.0 5.0 0.00 0.00 0.00 44 1014.8
20260901183559 96 136 0.0 5.0 0.00 0.00 0.00 44 1014.8
20260901183420 96 136 2.0 5.0 0.00 0.00 0.00 46 1014.9
20260901183322 95 136 2.0 5.0 0.00 0.00 0.00 47 1014.8
20260901183224 94 136 1.0 5.0 0.00 0.00 0.00 47 1014.8
20260901183135 94 136 1.0 5.0 0.00 0.00 0.00 46 1014.8
20260901183017 94 136 0.0 7.0 0.00 0.00 0.00 47 1014.8
20260901182924 94 136 1.0 7.0 0.00 0.00 0.00 45 1014.8
20260901182827 94 136 1.0 7.0 0.00 0.00 0.00 45 1014.8
20260901182718 94 136 0.0 7.0 0.00 0.00 0.00 44 1014.9
20260901182619 95 136 2.0 7.0 0.00 0.00 0.00 44 1014.9
20260901182521 95 136 3.0 7.0 0.00 0.00 0.00 44 1014.8
20260901182449 96 136 2.0 7.0 0.00 0.00 0.00 44 1014.9
20260901182335 96 136 3.0 7.0 0.00 0.00 0.00 46 1014.9
20260901182243 96 136 3.0 7.0 0.00 0.00 0.00 45 1014.8
20260901182145 96 138 2.0 5.0 0.00 0.00 0.00 47 1014.9
20260901182056 95 139 2.0 5.0 0.00 0.00 0.00 45 1014.9
20260901181916 95 139 1.0 5.0 0.00 0.00 0.00 48 1015.0
20260901181819 94 139 1.0 5.0 0.00 0.00 0.00 46 1014.9
20260901181748 94 139 2.0 5.0 0.00 0.00 0.00 46 1014.8
20260901181638 95 139 2.0 5.0 0.00 0.00 0.00 46 1014.8
20260901181523 95 139 0.0 3.0 0.00 0.00 0.00 47 1015.0
20260901181423 95 139 0.0 4.0 0.00 0.00 0.00 45 1015.0
20260901181334 95 139 0.0 4.0 0.00 0.00 0.00 44 1015.0
20260901181216 96 360 0.0 4.0 0.00 0.00 0.00 46 1015.0
20260901181138 96 360 0.0 4.0 0.00 0.00 0.00 46 1015.1
20260901181022 96 360 0.0 4.0 0.00 0.00 0.00 45 1015.0
20260901180923 95 360 0.0 5.0 0.00 0.00 0.00 45 1015.0
20260901180838 95 360 0.0 5.0 0.00 0.00 0.00 46 1015.0
20260901180721 95 360 2.0 5.0 0.00 0.00 0.00 47 1015.1
20260901180624 94 360 2.0 5.0 0.00 0.00 0.00 48 1015.1
20260901180554 94 360 1.0 5.0 0.00 0.00 0.00 48 1015.1
20260901180433 94 360 1.0 5.0 0.00 0.00 0.00 47 1015.1
20260901180320 95 360 1.0 5.0 0.00 0.00 0.00 48 1015.1
20260901180227 95 360 1.0 5.0 0.00 0.00 0.00 46 1015.1
20260901180128 95 360 1.0 5.0 0.00 0.00 0.00 46 1015.1
20260901180049 95 360 1.0 5.0 0.00 0.00 0.00 48 1015.1
20260901175837 93 360 0.0 5.0 0.00 0.00 0.00 48 1015.1
20260901175738 93 360 1.0 5.0 0.00 0.00 0.00 50 1015.2
20260901175623 92 360 1.0 5.0 0.00 0.00 0.00 49 1015.2
20260901175522 92 360 1.0 6.0 0.00 0.00 0.00 48 1015.2
20260901175432 92 360 1.0 6.0 0.00 0.00 0.00 49 1015.2
20260901175334 92 360 0.0 6.0 0.00 0.00 0.00 49 1015.3
20260901175216 92 360 1.0 6.0 0.00 0.00 0.00 48 1015.2
20260901175118 92 360 2.0 6.0 0.00 0.00 0.00 50 1015.3
20260901175047 92 360 1.0 6.0 0.00 0.00 0.00 49 1015.4
20260901174933 92 360 2.0 6.0 0.00 0.00 0.00 49 1015.4
20260901174841 92 360 3.0 6.0 0.00 0.00 0.00 48 1015.4
20260901174725 92 360 2.0 6.0 0.00 0.00 0.00 49 1015.4
20260901174626 92 360 1.0 5.0 0.00 0.00 0.00 49 1015.4
20260901174537 91 360 1.0 7.0 0.00 0.00 0.00 49 1015.4
20260901174420 92 360 1.0 7.0 0.00 0.00 0.00 50 1015.4
20260901174326 92 360 1.0 7.0 0.00 0.00 0.00 48 1015.4
20260901174256 92 360 1.0 7.0 0.00 0.00 0.00 48 1015.4
20260901174138 92 360 1.0 7.0 0.00 0.00 0.00 48 1015.4
20260901174018 92 360 1.0 7.0 0.00 0.00 0.00 50 1015.3
20260901173927 92 360 3.0 7.0 0.00 0.00 0.00 49 1015.3
20260901173829 92 360 3.0 7.0 0.00 0.00 0.00 49 1015.3
20260901173716 92 360 2.0 6.0 0.00 0.00 0.00 49 1015.4
20260901173645 92 360 2.0 6.0 0.00 0.00 0.00 48 1015.3
20260901173527 93 360 2.0 6.0 0.00 0.00 0.00 48 1015.3
20260901173458 93 360 2.0 6.0 0.00 0.00 0.00 49 1015.3
20260901173318 93 360 1.0 6.0 0.00 0.00 0.00 49 1015.3
20260901173220 93 360 2.0 6.0 0.00 0.00 0.00 50 1015.2
20260901173149 93 360 1.0 6.0 0.00 0.00 0.00 49 1015.3
20260901173032 93 360 0.0 6.0 0.00 0.00 0.00 50 1015.3
20260901172941 93 360 0.0 6.0 0.00 0.00 0.00 52 1015.3
20260901172823 92 360 1.0 6.0 0.00 0.00 0.00 52 1015.2
20260901172724 92 360 2.0 6.0 0.00 0.00 0.00 52 1015.3
20260901172627 91 360 2.0 6.0 0.00 0.00 0.00 52 1015.3
20260901172537 91 360 1.0 6.0 0.00 0.00 0.00 52 1015.3
20260901172423 91 360 3.0 6.0 0.00 0.00 0.00 51 1015.4
20260901172324 91 360 3.0 6.0 0.00 0.00 0.00 52 1015.4
20260901172234 91 360 3.0 6.0 0.00 0.00 0.00 51 1015.4
20260901172154 91 360 2.0 6.0 0.00 0.00 0.00 51 1015.4
20260901172041 91 360 1.0 6.0 0.00 0.00 0.00 51 1015.4
20260901171924 92 360 1.0 6.0 0.00 0.00 0.00 50 1015.5
20260901171833 92 360 1.0 6.0 0.00 0.00 0.00 51 1015.5
20260901171718 92 360 2.0 6.0 0.00 0.00 0.00 51 1015.5
20260901171621 92 360 2.0 6.0 0.00 0.00 0.00 51 1015.5
20260901171523 92 360 1.0 6.0 0.00 0.00 0.00 52 1015.4
20260901171434 92 360 2.0 6.0 0.00 0.00 0.00 52 1015.4
20260901171356 92 360 3.0 6.0 0.00 0.00 0.00 52 1015.4
20260901171216 91 360 3.0 6.0 0.00 0.00 0.00 52 1015.5
20260901171130 91 360 4.0 6.0 0.00 0.00 0.00 52 1015.5
20260901171032 90 360 4.0 6.0 0.00 0.00 0.00 54 1015.5
20260901170934 90 360 4.0 6.0 0.00 0.00 0.00 54 1015.5
20260901170844 89 360 2.0 6.0 0.00 0.00 0.00 54 1015.5
20260901170724 89 360 2.0 6.0 0.00 0.00 0.00 55 1015.5
20260901170626 89 360 2.0 7.0 0.00 0.00 0.00 54 1015.5
20260901170556 89 360 2.0 7.0 0.00 0.00 0.00 54 1015.5
20260901170420 89 360 2.0 7.0 0.00 0.00 0.00 55 1015.5
20260901170350 89 360 3.0 7.0 0.00 0.00 0.00 54 1015.5
20260901170257 89 360 3.0 7.0 0.00 0.00 0.00 55 1015.5
20260901170118 88 360 3.0 7.0 0.00 0.00 0.00 55 1015.5
20260901170101 88 360 2.0 7.0 0.00 0.00 0.00 56 1015.5
20260901165931 88 360 3.0 7.0 0.00 0.00 0.00 55 1015.4
20260901165859 88 360 4.0 7.0 0.00 0.00 0.00 55 1015.5
20260901165723 88 360 3.0 6.0 0.00 0.00 0.00 55 1015.4
20260901165629 89 360 2.0 6.0 0.00 0.00 0.00 54 1015.4
20260901165538 89 360 3.0 6.0 0.00 0.00 0.00 55 1015.4
20260901165421 89 360 4.0 6.0 0.00 0.00 0.00 55 1015.4
20260901165324 89 360 3.0 6.0 0.00 0.00 0.00 55 1015.5
20260901165233 89 360 3.0 6.0 0.00 0.00 0.00 55 1015.5
20260901165132 89 360 1.0 6.0 0.00 0.00 0.00 55 1015.4
20260901165016 89 360 1.0 6.0 0.00 0.00 0.00 55 1015.5
20260901164945 89 360 2.0 6.0 0.00 0.00 0.00 55 1015.5
20260901164826 89 360 2.0 7.0 0.00 0.00 0.00 55 1015.5
20260901164736 89 360 3.0 7.0 0.00 0.00 0.00 55 1015.5
20260901164616 89 360 4.0 7.0 0.00 0.00 0.00 56 1015.6
20260901164518 89 360 3.0 7.0 0.00 0.00 0.00 55 1015.5
20260901164426 89 360 3.0 7.0 0.00 0.00 0.00 56 1015.5
20260901164354 88 360 3.0 7.0 0.00 0.00 0.00 56 1015.5
20260901164242 88 360 2.0 7.0 0.00 0.00 0.00 57 1015.5
20260901164124 88 360 4.0 7.0 0.00 0.00 0.00 55 1015.5
20260901164026 88 360 4.0 7.0 0.00 0.00 0.00 56 1015.4
20260901163956 88 360 3.0 7.0 0.00 0.00 0.00 56 1015.4
20260901163816 87 360 3.0 7.0 0.00 0.00 0.00 56 1015.4
20260901163723 87 360 3.0 8.0 0.00 0.00 0.00 57 1015.3
20260901163654 87 360 4.0 8.0 0.00 0.00 0.00 56 1015.3
20260901163603 87 360 4.0 8.0 0.00 0.00 0.00 56 1015.4
20260901163443 87 360 3.0 8.0 0.00 0.00 0.00 56 1015.4
20260901163324 87 360 3.0 8.0 0.00 0.00 0.00 56 1015.3
20260901163254 87 360 3.0 8.0 0.00 0.00 0.00 56 1015.3
20260901163134 87 360 3.0 8.0 0.00 0.00 0.00 56 1015.3
20260901163043 87 360 4.0 8.0 0.00 0.00 0.00 56 1015.3
20260901162926 87 360 4.0 8.0 0.00 0.00 0.00 57 1015.3
20260901162857 87 360 2.0 8.0 0.00 0.00 0.00 57 1015.3
20260901162716 87 360 3.0 8.0 0.00 0.00 0.00 58 1015.4
20260901162618 87 360 3.0 8.0 0.00 0.00 0.00 57 1015.2
20260901162526 87 360 3.0 8.0 0.00 0.00 0.00 57 1015.3
20260901162428 87 360 3.0 8.0 0.00 0.00 0.00 57 1015.4
20260901162328 87 360 3.0 8.0 0.00 0.00 0.00 57 1015.3
20260901162220 87 360 4.0 8.0 0.00 0.00 0.00 56 1015.3
20260901162121 87 360 4.0 8.0 0.00 0.00 0.00 57 1015.2
20260901162023 87 360 4.0 8.0 0.00 0.00 0.00 57 1015.3
20260901161934 87 360 4.0 8.0 0.00 0.00 0.00 57 1015.3
20260901161815 87 360 3.0 8.0 0.00 0.00 0.00 57 1015.3
20260901161737 87 360 3.0 8.0 0.00 0.00 0.00 57 1015.2
20260901161629 87 360 4.0 8.0 0.00 0.00 0.00 56 1015.2
20260901161531 87 360 5.0 8.0 0.00 0.00 0.00 56 1015.2
20260901161432 87 360 4.0 8.0 0.00 0.00 0.00 56 1015.2
20260901161340 87 360 3.0 8.0 0.00 0.00 0.00 57 1015.2
20260901161222 87 360 3.0 8.0 0.00 0.00 0.00 57 1015.2
20260901161125 87 360 4.0 8.0 0.00 0.00 0.00 57 1015.3
20260901161036 87 360 4.0 8.0 0.00 0.00 0.00 57 1015.3
20260901160941 86 360 3.0 8.0 0.00 0.00 0.00 57 1015.2
20260901160849 86 360 3.0 8.0 0.00 0.00 0.00 57 1015.2
20260901160729 86 360 3.0 8.0 0.00 0.00 0.00 57 1015.2
20260901160638 86 360 4.0 8.0 0.00 0.00 0.00 57 1015.2
20260901160519 86 360 4.0 8.0 0.00 0.00 0.00 58 1015.1
20260901160422 86 360 4.0 8.0 0.00 0.00 0.00 58 1015.2
20260901160327 85 360 3.0 6.0 0.00 0.00 0.00 58 1015.2
20260901160236 85 360 2.0 6.0 0.00 0.00 0.00 58 1015.2
20260901160157 85 360 3.0 6.0 0.00 0.00 0.00 57 1015.1
20260901160055 85 360 4.0 6.0 0.00 0.00 0.00 58 1015.2
20260901155923 85 360 3.0 5.0 0.00 0.00 0.00 58 1015.1
20260901155833 85 360 2.0 5.0 0.00 0.00 0.00 59 1015.1
20260901155617 85 360 2.0 6.0 0.00 0.00 0.00 58 1015.1
20260901155528 85 360 2.0 6.0 0.00 0.00 0.00 59 1015.1
20260901155449 85 360 1.0 6.0 0.00 0.00 0.00 59 1015.1
20260901155338 85 360 1.0 6.0 0.00 0.00 0.00 59 1015.1
20260901155219 85 360 2.0 6.0 0.00 0.00 0.00 59 1015.1
20260901155121 85 360 2.0 6.0 0.00 0.00 0.00 59 1015.1
20260901155051 85 360 3.0 6.0 0.00 0.00 0.00 60 1015.2
20260901154928 85 360 3.0 6.0 0.00 0.00 0.00 60 1015.0
20260901154821 84 360 3.0 5.0 0.00 0.00 0.00 60 1015.1
20260901154724 84 360 2.0 6.0 0.00 0.00 0.00 61 1015.1
20260901154626 84 360 2.0 6.0 0.00 0.00 0.00 60 1015.1
20260901154557 84 360 1.0 6.0 0.00 0.00 0.00 61 1015.1
20260901154415 84 360 2.0 6.0 0.00 0.00 0.00 61 1015.2
20260901154317 84 360 3.0 6.0 0.00 0.00 0.00 61 1015.1
20260901154232 84 360 3.0 6.0 0.00 0.00 0.00 60 1015.1
20260901154155 84 360 4.0 6.0 0.00 0.00 0.00 61 1015.2
20260901154043 84 360 4.0 6.0 0.00 0.00 0.00 61 1015.1
20260901153921 84 360 3.0 6.0 0.00 0.00 0.00 61 1015.2
20260901153823 84 162 3.0 6.0 0.00 0.00 0.00 61 1015.2
20260901153733 84 360 3.0 6.0 0.00 0.00 0.00 62 1015.2
20260901153618 84 165 3.0 6.0 0.00 0.00 0.00 62 1015.1
20260901153520 83 360 3.0 6.0 0.00 0.00 0.00 62 1015.1
20260901153431 83 360 3.0 5.0 0.00 0.00 0.00 62 1015.1
20260901153333 83 360 3.0 6.0 0.00 0.00 0.00 63 1015.2
20260901153215 83 360 3.0 6.0 0.00 0.00 0.00 62 1015.1
20260901153117 83 360 2.0 6.0 0.00 0.00 0.00 62 1015.1
20260901153033 83 360 2.0 6.0 0.00 0.00 0.00 62 1015.1
20260901152934 83 360 3.0 6.0 0.00 0.00 0.00 62 1015.2
20260901152904 83 360 2.0 6.0 0.00 0.00 0.00 63 1015.1
20260901152723 83 164 2.0 6.0 0.00 0.00 0.00 63 1015.1
20260901152624 83 360 4.0 6.0 0.00 0.00 0.00 62 1015.2
20260901152535 83 360 5.0 6.0 0.00 0.00 0.00 63 1015.2
20260901152417 83 360 4.0 6.0 0.00 0.00 0.00 63 1015.2
20260901152324 83 360 4.0 6.0 0.00 0.00 0.00 62 1015.2
20260901152226 83 360 3.0 6.0 0.00 0.00 0.00 62 1015.1
20260901152154 83 173 3.0 6.0 0.00 0.00 0.00 62 1015.1
20260901152041 83 360 3.0 6.0 0.00 0.00 0.00 62 1015.1
20260901151922 83 360 3.0 7.0 0.00 0.00 0.00 63 1015.1
20260901151844 83 360 3.0 7.0 0.00 0.00 0.00 63 1015.1
20260901151734 83 360 3.0 7.0 0.00 0.00 0.00 63 1015.1
20260901151619 83 360 3.0 7.0 0.00 0.00 0.00 63 1015.1
20260901151541 83 360 3.0 7.0 0.00 0.00 0.00 63 1015.1
20260901151430 83 360 3.0 7.0 0.00 0.00 0.00 63 1015.1
20260901151332 83 360 2.0 7.0 0.00 0.00 0.00 63 1015.2
20260901151233 83 360 2.0 7.0 0.00 0.00 0.00 63 1015.1
20260901151143 83 360 2.0 7.0 0.00 0.00 0.00 63 1015.1
20260901151027 83 176 2.0 7.0 0.00 0.00 0.00 64 1015.0
20260901150929 82 360 3.0 6.0 0.00 0.00 0.00 64 1015.0
20260901150828 82 360 4.0 6.0 0.00 0.00 0.00 65 1015.0
20260901150738 82 360 4.0 6.0 0.00 0.00 0.00 65 1015.0
20260901150619 82 360 3.0 5.0 0.00 0.00 0.00 65 1015.0
20260901150521 82 360 2.0 5.0 0.00 0.00 0.00 66 1015.0
20260901150435 82 360 1.0 5.0 0.00 0.00 0.00 66 1015.0
20260901150338 82 360 2.0 5.0 0.00 0.00 0.00 66 1014.9
20260901150224 82 360 3.0 5.0 0.00 0.00 0.00 66 1015.0
20260901150154 82 360 3.0 5.0 0.00 0.00 0.00 66 1015.0
20260901150052 82 360 2.0 5.0 0.00 0.00 0.00 66 1014.9
20260901145923 82 360 3.0 5.0 0.00 0.00 0.00 66 1014.9
20260901145845 82 360 3.0 5.0 0.00 0.00 0.00 66 1015.0
20260901145737 82 360 3.0 5.0 0.00 0.00 0.00 66 1015.0
20260901145659 82 360 3.0 5.0 0.00 0.00 0.00 66 1015.1
20260901145621 82 360 3.0 5.0 0.00 0.00 0.00 67 1015.0
20260901145433 82 360 3.0 5.0 0.00 0.00 0.00 67 1015.0
20260901145342 81 360 2.0 5.0 0.00 0.00 0.00 67 1015.0
20260901145223 81 360 2.0 5.0 0.00 0.00 0.00 67 1015.0
20260901145126 81 360 2.0 5.0 0.00 0.00 0.00 67 1015.1
20260901145039 81 360 2.0 5.0 0.00 0.00 0.00 67 1015.0
20260901144938 81 360 3.0 5.0 0.00 0.00 0.00 68 1015.0
20260901144826 81 360 2.0 5.0 0.00 0.00 0.00 68 1015.0
20260901144748 81 360 2.0 5.0 0.00 0.00 0.00 68 1015.0
20260901144637 81 360 3.0 5.0 0.00 0.00 0.00 68 1015.0
20260901144538 81 360 2.0 5.0 0.00 0.00 0.00 68 1014.9
20260901144417 81 360 2.0 4.0 0.00 0.00 0.00 69 1014.9
20260901144347 81 360 2.0 4.0 0.00 0.00 0.00 69 1015.0
20260901144232 81 360 2.0 4.0 0.00 0.00 0.00 69 1015.0
20260901144139 81 360 3.0 4.0 0.00 0.00 0.00 69 1015.0
20260901144021 81 360 3.0 4.0 0.00 0.00 0.00 69 1015.0
20260901143922 81 360 3.0 5.0 0.00 0.01 0.00 69 1015.0
20260901143833 80 360 3.0 5.0 0.00 0.01 0.00 69 1015.0
20260901143717 80 360 2.0 5.0 0.00 0.01 0.00 69 1015.0
20260901143620 80 360 1.0 5.0 0.00 0.01 0.00 70 1015.0
20260901143524 80 360 1.0 5.0 0.00 0.01 0.00 70 1014.9
20260901143433 80 360 1.0 5.0 0.00 0.01 0.00 70 1014.9
20260901143316 80 360 2.0 5.0 0.00 0.01 0.00 70 1015.0
20260901143219 80 360 3.0 5.0 0.00 0.01 0.00 70 1014.9
20260901143126 80 360 3.0 5.0 0.00 0.01 0.00 70 1014.9
20260901143036 80 360 2.0 4.0 0.00 0.01 0.00 71 1014.9
20260901142917 80 360 2.0 4.0 0.00 0.01 0.00 71 1014.9
20260901142816 80 360 3.0 4.0 0.00 0.01 0.00 71 1014.9
20260901142725 80 360 3.0 4.0 0.00 0.01 0.00 71 1015.0
20260901142628 80 360 1.0 4.0 0.00 0.01 0.00 72 1014.9
20260901142557 80 360 1.0 4.0 0.00 0.01 0.00 72 1014.9
20260901142419 79 360 2.0 4.0 0.00 0.01 0.00 72 1014.9
20260901142328 79 360 2.0 4.0 0.00 0.01 0.00 72 1014.9
20260901142229 79 360 2.0 4.0 0.00 0.01 0.00 72 1014.9
20260901142131 79 360 2.0 4.0 0.00 0.01 0.00 72 1014.9
20260901142040 79 360 2.0 4.0 0.00 0.01 0.00 73 1014.9
20260901141922 79 360 1.0 4.0 0.00 0.01 0.00 73 1014.9
20260901141828 79 360 2.0 4.0 0.00 0.01 0.00 73 1014.8
20260901141731 79 360 2.0 4.0 0.00 0.01 0.00 73 1014.8
20260901141639 79 360 1.0 4.0 0.00 0.01 0.00 73 1014.9
20260901141542 79 203 2.0 4.0 0.00 0.01 0.00 73 1014.8
20260901141422 79 203 2.0 4.0 0.00 0.01 0.00 73 1014.8
20260901141332 79 360 2.0 4.0 0.00 0.01 0.00 73 1014.8
20260901141218 79 203 2.0 4.0 0.00 0.01 0.00 73 1014.8
20260901141120 79 203 2.0 4.0 0.00 0.01 0.00 73 1014.7
20260901141022 79 203 2.0 4.0 0.00 0.01 0.00 73 1014.7
20260901140932 78 203 2.0 4.0 0.00 0.01 0.00 73 1014.7
20260901140833 78 203 2.0 4.0 0.00 0.01 0.00 74 1014.7
20260901140716 78 150 1.0 4.0 0.00 0.01 0.00 74 1014.7
20260901140630 78 150 1.0 4.0 0.00 0.01 0.00 74 1014.7
20260901140532 78 150 1.0 4.0 0.00 0.01 0.00 74 1014.7
20260901140434 78 153 2.0 4.0 0.00 0.01 0.00 74 1014.7
20260901140339 78 153 1.0 3.0 0.00 0.01 0.00 74 1014.6
20260901140221 78 153 1.0 3.0 0.00 0.01 0.00 74 1014.7
20260901140122 78 153 0.0 3.0 0.00 0.01 0.00 74 1014.6
20260901140048 78 153 0.0 3.0 0.00 0.01 0.00 74 1014.6
20260901135920 78 153 0.0 3.0 0.00 0.01 0.00 74 1014.6
20260901135821 78 153 1.0 3.0 0.00 0.01 0.00 74 1014.6
20260901135722 78 153 1.0 3.0 0.00 0.01 0.00 74 1014.6
20260901135631 78 153 1.0 3.0 0.00 0.01 0.00 74 1014.6
20260901135600 78 153 1.0 3.0 0.00 0.01 0.00 74 1014.6
20260901135537 78 153 1.0 3.0 0.00 0.01 0.00 75 1014.6
20260901135426 78 153 1.0 3.0 0.00 0.01 0.00 75 1014.6
20260901135336 78 153 0.0 2.0 0.00 0.01 0.00 75 1014.6
20260901135222 78 153 0.0 3.0 0.00 0.01 0.00 75 1014.6
20260901135142 78 153 0.0 3.0 0.00 0.01 0.00 75 1014.7
20260901135030 78 153 0.0 3.0 0.00 0.01 0.00 75 1014.7
20260901134932 77 153 0.0 3.0 0.00 0.01 0.00 75 1014.7
20260901134841 78 153 0.0 3.0 0.00 0.01 0.00 75 1014.7
20260901134723 77 153 0.0 3.0 0.00 0.01 0.00 75 1014.7
20260901134629 77 153 1.0 3.0 0.00 0.01 0.00 75 1014.7
20260901134535 77 153 0.0 3.0 0.00 0.01 0.00 75 1014.7
20260901134418 77 153 1.0 3.0 0.00 0.01 0.00 75 1014.8
20260901134320 77 153 1.0 3.0 0.00 0.01 0.00 75 1014.7
20260901134224 77 153 0.0 2.0 0.00 0.01 0.00 75 1014.7
20260901134155 77 153 0.0 0.0 0.00 0.01 0.00 75 1014.7
20260901134017 77 153 0.0 1.0 0.00 0.01 0.00 75 1014.7
20260901133947 77 153 0.0 1.0 0.00 0.01 0.00 75 1014.7
20260901133827 77 153 0.0 1.0 0.00 0.01 0.00 75 1014.7
20260901133757 77 153 0.0 1.0 0.00 0.01 0.00 75 1014.7
20260901133704 77 153 0.0 1.0 0.00 0.01 0.00 75 1014.7
20260901133544 77 153 0.0 1.0 0.00 0.01 0.00 76 1014.6
20260901133452 77 153 0.0 1.0 0.00 0.01 0.00 76 1014.6
20260901133351 77 153 0.0 1.0 0.00 0.01 0.00 76 1014.6
20260901133240 77 153 0.0 1.0 0.00 0.01 0.00 76 1014.6
20260901133126 77 153 0.0 1.0 0.00 0.01 0.00 76 1014.6
20260901133028 77 153 0.0 1.0 0.00 0.01 0.00 76 1014.6
20260901132931 77 153 0.0 2.0 0.00 0.01 0.00 76 1014.6
20260901132840 77 153 0.0 2.0 0.00 0.01 0.00 76 1014.5
20260901132723 77 153 0.0 2.0 0.00 0.01 0.00 76 1014.5
20260901132626 77 153 0.0 2.0 0.00 0.01 0.00 76 1014.6
20260901132533 77 153 0.0 2.0 0.00 0.01 0.00 76 1014.6
20260901132441 77 153 0.0 2.0 0.00 0.01 0.00 76 1014.5
20260901132321 77 153 0.0 2.0 0.00 0.01 0.00 76 1014.5
20260901132243 77 153 1.0 2.0 0.00 0.01 0.00 76 1014.5
20260901132131 77 153 0.0 2.0 0.00 0.01 0.00 76 1014.5
20260901132032 77 153 0.0 2.0 0.00 0.01 0.00 76 1014.6
20260901131917 77 153 0.0 1.0 0.00 0.01 0.00 76 1014.6
20260901131827 77 153 0.0 1.0 0.00 0.01 0.00 76 1014.6
20260901131747 77 153 0.0 1.0 0.00 0.01 0.00 77 1014.6
20260901131636 77 128 0.0 1.0 0.00 0.01 0.00 77 1014.6
20260901131539 77 128 0.0 1.0 0.00 0.01 0.00 77 1014.5
20260901131419 77 128 0.0 1.0 0.00 0.01 0.00 77 1014.5
20260901131327 77 129 0.0 1.0 0.00 0.01 0.00 77 1014.5
20260901131234 77 129 0.0 1.0 0.00 0.01 0.00 77 1014.5
20260901131122 77 129 0.0 1.0 0.00 0.01 0.00 76 1014.5
20260901131023 77 129 0.0 1.0 0.00 0.01 0.00 76 1014.6
20260901130924 77 129 0.0 1.0 0.00 0.01 0.00 76 1014.5
20260901130833 77 129 0.0 1.0 0.00 0.01 0.00 76 1014.5
20260901130735 77 129 0.0 1.0 0.00 0.01 0.00 76 1014.5
20260901130621 77 129 0.0 1.0 0.00 0.01 0.00 76 1014.5
20260901130531 77 129 0.0 1.0 0.00 0.01 0.00 76 1014.5
20260901130432 77 129 0.0 1.0 0.00 0.01 0.00 76 1014.4
20260901130333 77 129 0.0 1.0 0.00 0.01 0.00 76 1014.5
20260901130242 77 129 0.0 1.0 0.00 0.01 0.00 76 1014.5
20260901130123 77 129 0.0 1.0 0.00 0.01 0.00 76 1014.4
20260901130042 77 129 0.0 1.0 0.00 0.01 0.00 76 1014.4
20260901125940 77 129 0.0 1.0 0.00 0.01 0.00 76 1014.3
20260901125841 77 129 0.0 1.0 0.00 0.01 0.00 76 1014.3
20260901125730 77 129 0.0 1.0 0.00 0.01 0.00 76 1014.3
20260901125653 77 129 0.0 1.0 0.00 0.01 0.00 76 1014.4
20260901125559 77 129 0.0 1.0 0.00 0.01 0.00 76 1014.4
20260901125506 77 129 0.0 1.0 0.00 0.01 0.00 76 1014.3
20260901125405 77 129 0.0 1.0 0.00 0.01 0.00 76 1014.3
20260901125241 77 129 0.0 1.0 0.00 0.01 0.00 76 1014.2
20260901125126 77 129 0.0 1.0 0.00 0.01 0.00 76 1014.2
20260901125028 77 129 0.0 1.0 0.00 0.01 0.00 76 1014.3
20260901124931 77 129 0.0 1.0 0.00 0.01 0.00 76 1014.3
20260901124841 77 129 0.0 1.0 0.00 0.01 0.00 77 1014.2
20260901124744 76 129 0.0 1.0 0.00 0.01 0.00 77 1014.1
20260901124633 77 129 0.0 1.0 0.00 0.01 0.00 77 1014.1
20260901124519 77 129 0.0 1.0 0.00 0.01 0.00 77 1014.1
20260901124420 76 129 0.0 1.0 0.00 0.01 0.00 77 1014.1
20260901124348 76 129 0.0 1.0 0.00 0.01 0.00 77 1014.1
20260901124228 76 129 0.0 1.0 0.00 0.01 0.00 77 1014.1
20260901124131 77 129 0.0 1.0 0.00 0.01 0.00 77 1014.1
20260901124040 77 129 0.0 1.0 0.00 0.01 0.00 77 1014.0
20260901123927 77 129 0.0 1.0 0.00 0.01 0.00 77 1014.0
20260901123828 76 129 0.0 1.0 0.00 0.01 0.00 77 1014.0
20260901123729 77 129 0.0 1.0 0.00 0.01 0.00 77 1014.0
20260901123638 76 129 0.0 0.0 0.00 0.01 0.00 77 1014.0
20260901123521 76 129 0.0 0.0 0.00 0.01 0.00 77 1014.0
20260901123442 76 129 0.0 0.0 0.00 0.01 0.00 77 1014.0
20260901123332 76 129 0.0 0.0 0.00 0.01 0.00 77 1014.0
20260901123216 76 130 0.0 0.0 0.00 0.01 0.00 77 1014.0
20260901123119 76 129 0.0 0.0 0.00 0.01 0.00 77 1014.1
20260901123020 76 129 0.0 0.0 0.00 0.01 0.00 76 1014.1
20260901122931 76 130 0.0 0.0 0.00 0.01 0.00 77 1014.1
20260901122833 76 130 0.0 0.0 0.00 0.01 0.00 77 1014.0
20260901122719 76 129 0.0 0.0 0.00 0.01 0.00 77 1014.1
20260901122627 76 129 0.0 1.0 0.00 0.01 0.00 77 1014.1
20260901122530 76 130 0.0 1.0 0.00 0.01 0.00 77 1014.1
20260901122433 76 131 0.0 1.0 0.00 0.01 0.00 77 1014.1
20260901122315 76 130 0.0 1.0 0.00 0.01 0.00 77 1014.1
20260901122224 76 130 0.0 1.0 0.00 0.01 0.00 77 1014.1
20260901122131 76 130 0.0 1.0 0.00 0.01 0.00 77 1014.1
20260901122033 76 131 0.0 1.0 0.00 0.01 0.00 77 1014.2
20260901121942 76 130 0.0 1.0 0.00 0.01 0.00 77 1014.1
20260901121825 76 130 0.0 1.0 0.00 0.01 0.00 77 1014.1
20260901121727 76 131 0.0 0.0 0.00 0.01 0.00 77 1014.1
20260901121630 76 131 0.0 0.0 0.00 0.01 0.00 77 1014.1
20260901121516 76 131 0.0 0.0 0.00 0.01 0.00 77 1014.1
20260901121444 76 131 0.0 0.0 0.00 0.01 0.00 77 1014.1
20260901121323 76 131 0.0 0.0 0.00 0.01 0.00 77 1014.1
20260901121231 76 131 0.0 0.0 0.00 0.01 0.00 77 1014.1
20260901121141 76 360 0.0 0.0 0.00 0.01 0.00 77 1014.1
20260901121021 76 360 0.0 0.0 0.00 0.01 0.00 77 1014.2
20260901120922 76 131 0.0 0.0 0.00 0.01 0.00 77 1014.2
20260901120837 76 130 0.0 0.0 0.00 0.01 0.00 76 1014.2
20260901120720 76 360 0.0 0.0 0.00 0.01 0.00 76 1014.1
20260901120621 76 360 0.0 0.0 0.00 0.01 0.00 76 1014.1
20260901120522 76 360 0.0 0.0 0.00 0.01 0.00 77 1014.2
20260901120434 76 360 0.0 0.0 0.00 0.01 0.00 77 1014.2
20260901120316 76 360 0.0 0.0 0.00 0.01 0.00 77 1014.1
20260901120241 76 360 0.0 0.0 0.00 0.01 0.00 77 1014.1
20260901120128 76 360 0.0 0.0 0.00 0.01 0.00 77 1014.0
20260901120042 76 129 0.0 0.0 0.00 0.01 0.00 77 1014.0
20260901115940 76 129 0.0 0.0 0.00 0.01 0.00 76 1014.1
20260901115822 77 129 0.0 0.0 0.00 0.01 0.00 76 1014.1
20260901115722 76 129 0.0 0.0 0.00 0.01 0.00 76 1014.1
20260901115628 76 129 0.0 0.0 0.00 0.01 0.00 76 1014.1
20260901115516 76 129 0.0 2.0 0.00 0.01 0.00 76 1014.0
20260901115438 76 129 0.0 2.0 0.00 0.01 0.00 76 1014.1
20260901115326 77 129 0.0 3.0 0.00 0.01 0.00 76 1014.0
20260901115256 76 129 0.0 3.0 0.00 0.01 0.00 76 1014.0
20260901115156 76 129 0.0 3.0 0.00 0.01 0.00 76 1014.1
20260901115017 76 129 0.0 3.0 0.00 0.01 0.00 76 1014.0
20260901114927 76 129 0.0 3.0 0.00 0.01 0.00 76 1014.1
20260901114834 76 129 0.0 3.0 0.00 0.01 0.00 76 1014.1
20260901114716 76 129 0.0 3.0 0.00 0.01 0.00 77 1014.0
20260901114623 76 129 1.0 3.0 0.00 0.01 0.00 77 1014.1
20260901114524 76 129 1.0 3.0 0.00 0.01 0.00 77 1013.9
20260901114434 76 129 0.0 3.0 0.00 0.01 0.00 77 1013.9
20260901114355 76 129 0.0 2.0 0.00 0.01 0.00 77 1014.0
20260901114243 76 129 0.0 2.0 0.00 0.01 0.00 77 1014.0
20260901114128 76 129 0.0 2.0 0.00 0.01 0.00 77 1014.1
20260901114039 76 129 0.0 2.0 0.00 0.01 0.00 77 1014.1
20260901113942 76 129 0.0 2.0 0.00 0.01 0.00 77 1014.0
20260901113821 76 129 0.0 2.0 0.00 0.01 0.00 77 1014.0
20260901113731 76 129 1.0 2.0 0.00 0.01 0.00 77 1014.0
20260901113654 76 129 1.0 3.0 0.00 0.01 0.00 77 1014.0
20260901113541 76 129 1.0 3.0 0.00 0.01 0.00 77 1014.0
20260901113426 76 129 0.0 3.0 0.00 0.01 0.00 77 1014.0
20260901113323 76 129 0.0 3.0 0.00 0.01 0.00 77 1013.9
20260901113254 76 129 0.0 3.0 0.00 0.01 0.00 77 1013.9
20260901113141 76 129 0.0 3.0 0.00 0.01 0.00 77 1013.9
20260901113022 76 129 1.0 3.0 0.00 0.01 0.00 77 1014.0
20260901112940 76 129 2.0 3.0 0.00 0.01 0.00 77 1013.9
20260901112828 76 129 2.0 3.0 0.00 0.01 0.00 77 1014.0
20260901112728 76 129 1.0 3.0 0.00 0.01 0.00 77 1013.9
20260901112642 76 129 0.0 3.0 0.00 0.01 0.00 77 1013.9
20260901112522 76 360 0.0 3.0 0.00 0.01 0.00 76 1014.0
20260901112433 76 360 0.0 3.0 0.00 0.01 0.00 76 1014.0
20260901112333 76 360 0.0 3.0 0.00 0.01 0.00 76 1013.9
20260901112242 76 360 0.0 3.0 0.00 0.01 0.00 76 1013.9
20260901112142 76 360 1.0 3.0 0.00 0.01 0.00 76 1013.9
20260901112021 77 360 1.0 3.0 0.00 0.01 0.00 76 1013.8
20260901111936 77 360 1.0 3.0 0.00 0.01 0.00 76 1013.8
20260901111819 77 360 1.0 3.0 0.00 0.01 0.00 76 1013.8
20260901111749 77 360 0.0 1.0 0.00 0.01 0.00 76 1013.7
20260901111628 77 360 0.0 2.0 0.00 0.01 0.00 76 1013.8
20260901111531 77 360 0.0 3.0 0.00 0.01 0.00 76 1013.8
20260901111440 77 360 0.0 3.0 0.00 0.01 0.00 76 1013.8
20260901111326 77 360 0.0 3.0 0.00 0.01 0.00 76 1013.7
20260901111226 77 360 0.0 3.0 0.00 0.01 0.00 75 1013.8
20260901111133 77 360 0.0 3.0 0.00 0.01 0.00 75 1013.8
20260901111034 77 360 0.0 3.0 0.00 0.01 0.00 75 1013.8
20260901110916 77 360 1.0 3.0 0.00 0.01 0.00 75 1013.8
20260901110819 77 360 1.0 3.0 0.00 0.01 0.00 75 1013.9
20260901110726 77 360 1.0 3.0 0.00 0.01 0.00 75 1013.9
20260901110634 77 360 1.0 3.0 0.00 0.01 0.00 75 1013.9
20260901110602 77 360 1.0 3.0 0.00 0.01 0.00 75 1014.0
20260901110420 77 360 1.0 3.0 0.00 0.01 0.00 75 1013.9
20260901110322 77 360 1.0 3.0 0.00 0.01 0.00 74 1014.0
20260901110233 77 360 1.0 3.0 0.00 0.01 0.00 74 1014.0
20260901110133 77 360 1.0 3.0 0.00 0.01 0.00 74 1014.0
20260901110028 77 360 0.0 3.0 0.00 0.01 0.00 74 1013.8
20260901105926 77 360 1.0 3.0 0.00 0.01 0.00 74 1013.9
20260901105847 77 360 1.0 3.0 0.00 0.01 0.00 74 1013.8
20260901105736 77 360 0.0 3.0 0.00 0.01 0.00 74 1013.8
20260901105637 77 360 0.0 3.0 0.00 0.01 0.00 74 1013.7
20260901105526 78 360 0.0 2.0 0.00 0.01 0.00 74 1013.8
20260901105425 78 360 0.0 2.0 0.00 0.01 0.00 74 1013.8
20260901105332 78 360 0.0 2.0 0.00 0.01 0.00 74 1013.8
20260901105240 78 360 0.0 2.0 0.00 0.01 0.00 74 1013.7
20260901105122 78 360 0.0 2.0 0.00 0.01 0.00 74 1013.8
20260901105044 78 360 1.0 2.0 0.00 0.01 0.00 74 1013.7
20260901104933 77 360 1.0 2.0 0.00 0.01 0.00 74 1013.7
20260901104835 78 360 0.0 2.0 0.00 0.01 0.00 74 1013.8
20260901104720 78 360 0.0 2.0 0.00 0.01 0.00 74 1013.8
20260901104629 78 360 0.0 1.0 0.00 0.01 0.00 74 1013.7
20260901104528 77 360 0.0 0.0 0.00 0.01 0.00 74 1013.8
20260901104456 77 360 0.0 0.0 0.00 0.01 0.00 74 1013.8
20260901104320 77 360 0.0 0.0 0.00 0.01 0.00 74 1013.7
20260901104241 77 360 0.0 0.0 0.00 0.01 0.00 74 1013.7
20260901104147 77 360 0.0 0.0 0.00 0.01 0.00 74 1013.7
20260901104028 77 360 0.0 0.0 0.00 0.01 0.00 74 1013.8
20260901103942 77 360 0.0 0.0 0.00 0.01 0.00 74 1013.8
20260901103828 77 360 0.0 0.0 0.00 0.01 0.00 74 1013.7
20260901103728 77 360 0.0 0.0 0.00 0.01 0.00 74 1013.8
20260901103630 77 360 0.0 0.0 0.00 0.01 0.00 74 1013.8
20260901103539 77 360 0.0 0.0 0.00 0.01 0.00 74 1013.8
20260901103421 77 360 0.0 0.0 0.00 0.01 0.00 74 1013.8
20260901103343 77 360 0.0 0.0 0.00 0.01 0.00 74 1013.8
20260901103236 77 360 0.0 0.0 0.00 0.01 0.00 74 1013.8
20260901103118 77 360 0.0 0.0 0.00 0.01 0.00 74 1013.7
20260901103021 77 360 0.0 0.0 0.00 0.01 0.00 74 1013.8
20260901102923 77 360 0.0 0.0 0.00 0.01 0.00 74 1013.8
20260901102834 77 360 0.0 0.0 0.00 0.01 0.00 74 1013.8
20260901102756 77 129 0.0 0.0 0.00 0.01 0.00 74 1013.8
20260901102629 77 128 0.0 0.0 0.00 0.01 0.00 74 1013.8
20260901102528 77 128 0.0 0.0 0.00 0.01 0.00 74 1013.8
20260901102431 77 128 0.0 0.0 0.00 0.01 0.00 74 1013.8
20260901102338 77 128 0.0 0.0 0.00 0.01 0.00 74 1013.7
20260901102241 77 128 0.0 0.0 0.00 0.01 0.00 74 1013.7
20260901102119 77 128 0.0 0.0 0.00 0.01 0.00 74 1013.8
20260901102028 77 128 0.0 0.0 0.00 0.01 0.00 74 1013.9
20260901101954 77 128 0.0 0.0 0.00 0.01 0.00 74 1013.9
20260901101840 77 128 0.0 0.0 0.00 0.01 0.00 74 1013.8
20260901101721 77 128 0.0 0.0 0.00 0.01 0.00 74 1013.8
20260901101622 77 128 0.0 0.0 0.00 0.01 0.00 74 1013.8
20260901101532 77 128 0.0 0.0 0.00 0.01 0.00 74 1013.8
20260901101433 77 128 0.0 0.0 0.00 0.01 0.00 73 1013.9
20260901101319 77 128 0.0 0.0 0.00 0.01 0.00 73 1013.9
20260901101230 77 128 0.0 0.0 0.00 0.01 0.00 73 1013.9
20260901101133 77 128 0.0 0.0 0.00 0.01 0.00 73 1013.9
20260901101101 77 128 0.0 0.0 0.00 0.01 0.00 73 1013.9
20260901100922 77 128 0.0 0.0 0.00 0.01 0.00 73 1013.9
20260901100824 78 128 0.0 0.0 0.00 0.01 0.00 73 1013.9
20260901100726 78 128 0.0 0.0 0.00 0.01 0.00 73 1013.9
20260901100640 78 128 0.0 0.0 0.00 0.01 0.00 73 1013.9
20260901100522 78 128 0.0 0.0 0.00 0.01 0.00 73 1013.9
20260901100421 78 128 0.0 0.0 0.00 0.01 0.00 73 1013.9
20260901100322 78 128 0.0 0.0 0.00 0.01 0.00 72 1014.0
20260901100233 78 128 0.0 0.0 0.00 0.01 0.00 72 1014.0
20260901100154 78 128 0.0 0.0 0.00 0.01 0.00 72 1014.1
20260901100035 78 128 0.0 0.0 0.00 0.01 0.00 72 1013.9
20260901095951 78 128 0.0 0.0 0.00 0.01 0.00 72 1014.0
20260901095832 78 128 0.0 0.0 0.00 0.01 0.00 72 1014.0
20260901095731 78 128 0.0 0.0 0.00 0.01 0.00 72 1014.0
20260901095640 78 128 0.0 0.0 0.00 0.01 0.00 71 1014.0
20260901095542 78 128 0.0 0.0 0.00 0.01 0.00 71 1013.9
20260901095421 78 128 0.0 0.0 0.00 0.01 0.00 71 1014.0
20260901095337 78 128 0.0 0.0 0.00 0.01 0.00 71 1014.0
20260901095217 78 128 0.0 0.0 0.00 0.01 0.00 71 1013.9
20260901095127 78 128 0.0 0.0 0.00 0.01 0.00 71 1013.9
20260901095025 78 128 0.0 0.0 0.00 0.01 0.00 71 1014.0
20260901094955 78 128 0.0 0.0 0.00 0.01 0.00 71 1014.0
20260901094817 78 128 0.0 0.0 0.00 0.01 0.00 71 1013.9
20260901094739 78 128 0.0 0.0 0.00 0.01 0.00 71 1013.8
20260901094632 78 128 0.0 0.0 0.00 0.01 0.00 71 1013.8
20260901094534 78 128 0.0 0.0 0.00 0.01 0.00 71 1013.9
20260901094417 78 128 0.0 0.0 0.00 0.01 0.00 71 1013.9
20260901094319 78 128 0.0 0.0 0.00 0.01 0.00 71 1013.9
20260901094227 78 128 0.0 0.0 0.00 0.01 0.00 70 1013.8
20260901094131 78 128 0.0 0.0 0.00 0.01 0.00 70 1013.8
20260901094034 78 128 0.0 0.0 0.00 0.01 0.00 70 1013.8
20260901093944 78 128 0.0 0.0 0.00 0.01 0.00 70 1013.8
20260901093819 78 128 0.0 0.0 0.00 0.01 0.00 70 1013.7
20260901093733 78 128 0.0 0.0 0.00 0.01 0.00 70 1013.7
20260901093547 78 128 0.0 0.0 0.00 0.01 0.00 70 1013.7
20260901093427 79 128 0.0 0.0 0.00 0.01 0.00 70 1013.7
20260901093333 79 128 0.0 0.0 0.00 0.01 0.00 70 1013.7
20260901093215 79 128 0.0 0.0 0.00 0.01 0.00 70 1013.8
20260901093125 79 128 0.0 0.0 0.00 0.01 0.00 70 1013.7
20260901093026 79 128 0.0 0.0 0.00 0.01 0.00 69 1013.8
20260901092956 79 128 0.0 0.0 0.00 0.01 0.00 69 1013.8
20260901092856 79 128 0.0 0.0 0.00 0.01 0.00 69 1013.8
20260901092745 79 128 0.0 0.0 0.00 0.01 0.00 69 1013.8
20260901092658 79 128 0.0 0.0 0.00 0.01 0.00 69 1013.8
20260901092520 79 128 0.0 0.0 0.00 0.01 0.00 69 1013.9
20260901092441 79 128 0.0 0.0 0.00 0.01 0.00 69 1013.9
20260901092349 79 128 0.0 0.0 0.00 0.01 0.00 69 1013.9
20260901092230 79 128 0.0 0.0 0.00 0.01 0.00 69 1013.9
20260901092141 79 128 0.0 0.0 0.00 0.01 0.00 69 1013.9
20260901092022 79 128 0.0 0.0 0.00 0.01 0.00 69 1013.8
20260901091930 79 128 0.0 0.0 0.00 0.01 0.00 69 1013.8
20260901091833 79 128 0.0 0.0 0.00 0.01 0.00 69 1013.9
20260901091741 79 128 0.0 0.0 0.00 0.01 0.00 69 1013.8
20260901091621 79 128 0.0 0.0 0.00 0.01 0.00 68 1013.8
20260901091520 79 128 0.0 0.0 0.00 0.01 0.00 68 1013.9
20260901091451 79 128 0.0 0.0 0.00 0.01 0.00 68 1013.9
20260901091248 79 128 0.0 0.0 0.00 0.01 0.00 68 1014.0
20260901091139 79 128 0.0 0.0 0.00 0.01 0.00 68 1014.0
20260901091020 79 128 0.0 0.0 0.00 0.01 0.00 67 1013.9
20260901090922 79 128 0.0 0.0 0.00 0.01 0.00 67 1013.9
20260901090852 79 128 0.0 0.0 0.00 0.01 0.00 67 1013.9
20260901090733 79 128 0.0 0.0 0.00 0.01 0.00 67 1013.9
20260901090642 80 128 0.0 0.0 0.00 0.01 0.00 67 1013.9
20260901090545 80 128 0.0 0.0 0.00 0.01 0.00 66 1013.9
20260901090426 80 128 0.0 0.0 0.00 0.01 0.00 66 1013.9
20260901090356 80 128 0.0 0.0 0.00 0.01 0.00 66 1013.9
20260901090217 80 128 0.0 0.0 0.00 0.01 0.00 66 1013.9
20260901090119 80 128 0.0 0.0 0.00 0.01 0.00 66 1013.8
20260901090101 80 128 0.0 0.0 0.00 0.01 0.00 66 1013.8
20260901085918 80 128 0.0 0.0 0.00 0.01 0.00 66 1013.8
20260901085824 80 128 0.0 0.0 0.00 0.01 0.00 65 1013.9
20260901085727 80 128 0.0 0.0 0.00 0.01 0.00 65 1013.9
20260901085636 80 128 0.0 0.0 0.00 0.01 0.00 65 1013.9
20260901085518 80 128 0.0 0.0 0.00 0.01 0.00 65 1013.8
20260901085420 80 128 0.0 0.0 0.00 0.01 0.00 65 1013.9
20260901085322 80 128 0.0 0.0 0.00 0.01 0.00 64 1013.9
20260901085236 80 128 0.0 0.0 0.00 0.01 0.00 64 1013.9
20260901085136 80 128 0.0 0.0 0.00 0.01 0.00 64 1013.8
20260901085045 80 128 0.0 0.0 0.00 0.01 0.00 64 1013.8
20260901085014 80 128 0.0 0.0 0.00 0.01 0.00 64 1013.8
20260901084824 80 128 0.0 0.0 0.00 0.01 0.00 64 1013.8
20260901084727 80 128 0.0 0.0 0.00 0.01 0.00 64 1013.9
20260901084631 80 128 0.0 0.0 0.00 0.01 0.00 64 1013.9
20260901084543 80 128 0.0 0.0 0.00 0.01 0.00 64 1014.0
20260901084424 80 128 0.0 0.0 0.00 0.01 0.00 64 1013.9
20260901084355 80 128 0.0 0.0 0.00 0.01 0.00 64 1013.9
20260901084256 80 128 0.0 0.0 0.00 0.01 0.00 64 1013.9
20260901084117 80 128 0.0 0.0 0.00 0.01 0.00 64 1014.0
20260901084025 80 128 0.0 0.0 0.00 0.01 0.00 64 1013.9
20260901083955 80 128 0.0 0.0 0.00 0.01 0.00 64 1013.9
20260901083816 80 128 0.0 0.0 0.00 0.01 0.00 64 1014.0
20260901083722 80 128 0.0 0.0 0.00 0.01 0.00 64 1014.0
20260901083633 80 128 0.0 0.0 0.00 0.01 0.00 64 1014.0
20260901083533 80 128 0.0 0.0 0.00 0.01 0.00 64 1014.0
20260901083435 80 128 0.0 0.0 0.00 0.01 0.00 64 1014.0
20260901083316 80 128 0.0 0.0 0.00 0.01 0.00 64 1014.1
20260901083225 80 128 0.0 0.0 0.00 0.01 0.00 64 1014.1
20260901083133 80 128 0.0 0.0 0.00 0.01 0.00 64 1014.1
20260901083034 80 128 0.0 0.0 0.00 0.01 0.00 64 1014.0
20260901082917 80 128 0.0 0.0 0.00 0.01 0.00 63 1014.1
20260901082846 80 128 0.0 0.0 0.00 0.01 0.00 63 1014.1
20260901082725 80 128 0.0 0.0 0.00 0.01 0.00 63 1014.0
20260901082633 80 128 0.0 0.0 0.00 0.01 0.00 63 1014.0
20260901082520 80 128 0.0 0.0 0.00 0.01 0.00 64 1014.1
20260901082421 80 128 0.0 0.0 0.00 0.01 0.00 63 1014.1
20260901082351 80 128 0.0 0.0 0.00 0.01 0.00 63 1014.1
20260901082238 80 128 0.0 0.0 0.00 0.01 0.00 63 1014.0
20260901082120 80 128 0.0 0.0 0.00 0.01 0.00 63 1014.0
20260901082021 80 128 0.0 0.0 0.00 0.01 0.00 63 1014.0
20260901081931 80 128 0.0 0.0 0.00 0.01 0.00 63 1014.0
20260901081817 80 128 0.0 0.0 0.00 0.01 0.00 63 1014.0
20260901081720 80 128 0.0 0.0 0.00 0.01 0.00 63 1013.9
20260901081622 80 128 0.0 0.0 0.00 0.01 0.00 63 1014.0
20260901081532 80 128 0.0 0.0 0.00 0.01 0.00 63 1014.0
20260901081452 80 128 0.0 0.0 0.00 0.01 0.00 63 1014.0
20260901081341 81 128 0.0 0.0 0.00 0.01 0.00 63 1013.9
20260901081221 81 128 0.0 0.0 0.00 0.01 0.00 62 1013.9
20260901081135 81 128 0.0 0.0 0.00 0.01 0.00 62 1013.9
20260901081037 81 128 0.0 0.0 0.00 0.01 0.00 62 1014.0
20260901080917 81 128 0.0 0.0 0.00 0.01 0.00 62 1013.9
20260901080826 81 128 0.0 0.0 0.00 0.01 0.00 62 1013.9
20260901080729 81 128 0.0 0.0 0.00 0.01 0.00 62 1013.9
20260901080630 81 128 0.0 0.0 0.00 0.01 0.00 62 1013.9
20260901080517 81 128 0.0 0.0 0.00 0.01 0.00 62 1013.9
20260901080427 81 128 0.0 0.0 0.00 0.01 0.00 62 1014.0
20260901080329 81 128 0.0 0.0 0.00 0.01 0.00 62 1014.0
20260901080258 81 128 0.0 0.0 0.00 0.01 0.00 62 1013.9
20260901080118 81 128 0.0 0.0 0.00 0.01 0.00 61 1013.9
20260901080032 81 128 0.0 0.0 0.00 0.01 0.00 61 1013.9
20260901075951 81 128 0.0 0.0 0.00 0.01 0.00 61 1014.0
20260901075815 81 128 0.0 0.0 0.00 0.01 0.00 61 1014.0
20260901075717 81 128 0.0 0.0 0.00 0.01 0.00 61 1014.0
20260901075625 81 128 0.0 0.0 0.00 0.01 0.00 61 1014.0
20260901075527 81 128 0.0 0.0 0.00 0.01 0.00 61 1014.0
20260901075436 81 128 0.0 0.0 0.00 0.01 0.00 61 1014.0
20260901075317 81 128 0.0 0.0 0.00 0.01 0.00 61 1014.1
20260901075223 81 128 0.0 0.0 0.00 0.01 0.00 61 1014.1
20260901075154 81 128 0.0 0.0 0.00 0.01 0.00 62 1014.1
20260901075034 81 128 0.0 0.0 0.00 0.01 0.00 62 1014.0
20260901074936 81 128 0.0 0.0 0.00 0.01 0.00 62 1014.0
20260901074857 81 128 0.0 0.0 0.00 0.01 0.00 62 1013.9
20260901074717 81 128 0.0 0.0 0.00 0.01 0.00 63 1014.0
20260901074627 81 128 0.0 0.0 0.00 0.01 0.00 63 1013.9
20260901074557 81 128 0.0 0.0 0.00 0.01 0.00 63 1013.9
20260901074422 81 128 0.0 0.0 0.00 0.01 0.00 63 1013.9
20260901074324 81 128 0.0 0.0 0.00 0.01 0.00 63 1014.0
20260901074225 81 128 0.0 0.0 0.00 0.01 0.00 63 1014.0
20260901074135 81 128 0.0 0.0 0.00 0.01 0.00 63 1014.0
20260901074016 81 128 0.0 0.0 0.00 0.01 0.00 63 1013.9
20260901073922 81 128 0.0 0.0 0.00 0.01 0.00 63 1013.9
20260901073852 81 128 0.0 0.0 0.00 0.01 0.00 63 1013.9
20260901073732 81 128 0.0 0.0 0.00 0.01 0.00 63 1013.8
20260901073634 81 128 0.0 0.0 0.00 0.01 0.00 63 1013.8
20260901073541 81 128 0.0 0.0 0.00 0.01 0.00 63 1013.8
20260901073423 81 128 0.0 0.0 0.00 0.01 0.00 63 1013.7
20260901073345 81 128 0.0 0.0 0.00 0.01 0.00 62 1013.8
20260901073237 81 128 0.0 0.0 0.00 0.01 0.00 62 1013.8
20260901073120 81 128 0.0 0.0 0.00 0.01 0.00 62 1013.8
20260901073022 81 128 0.0 0.0 0.00 0.01 0.00 62 1013.8
20260901072924 81 128 0.0 0.0 0.00 0.01 0.00 62 1013.8
20260901072834 81 128 0.0 0.0 0.00 0.01 0.00 62 1013.8
20260901072716 81 128 0.0 0.0 0.00 0.01 0.00 62 1013.8
20260901072623 81 128 0.0 0.0 0.00 0.01 0.00 62 1013.8
20260901072533 81 128 0.0 0.0 0.00 0.01 0.00 62 1013.8
20260901072455 81 128 0.0 0.0 0.00 0.01 0.00 62 1013.8
20260901072342 81 128 0.0 0.0 0.00 0.01 0.00 62 1013.7
20260901072224 81 128 0.0 0.0 0.00 0.01 0.00 62 1013.7
20260901072125 81 128 0.0 0.0 0.00 0.01 0.00 62 1013.8
20260901072033 81 128 0.0 0.0 0.00 0.01 0.00 62 1013.8
20260901071942 81 128 0.0 0.0 0.00 0.01 0.00 62 1013.7
20260901071843 81 128 0.0 0.0 0.00 0.01 0.00 62 1013.7
20260901071733 81 128 0.0 0.0 0.00 0.01 0.00 62 1013.7
20260901071635 81 128 0.0 0.0 0.00 0.01 0.00 62 1013.7
20260901071535 81 128 0.0 0.0 0.00 0.01 0.00 62 1013.7
20260901071416 81 128 0.0 0.0 0.00 0.01 0.00 62 1013.7
20260901071330 81 128 0.0 0.0 0.00 0.01 0.00 63 1013.7
20260901071233 81 128 0.0 0.0 0.00 0.01 0.00 62 1013.7
20260901071142 81 128 0.0 0.0 0.00 0.01 0.00 62 1013.7
20260901071044 81 128 0.0 0.0 0.00 0.01 0.00 62 1013.7
20260901070954 81 128 0.0 0.0 0.00 0.01 0.00 62 1013.7
20260901070815 81 128 0.0 0.0 0.00 0.01 0.00 62 1013.6
20260901070721 81 128 0.0 0.0 0.00 0.01 0.00 63 1013.7
20260901070622 81 128 0.0 0.0 0.00 0.01 0.00 63 1013.7
20260901070533 81 128 0.0 0.0 0.00 0.01 0.00 63 1013.7
20260901070455 81 128 0.0 0.0 0.00 0.01 0.00 62 1013.7
20260901070316 81 128 0.0 0.0 0.00 0.01 0.00 62 1013.7
20260901070245 82 128 0.0 0.0 0.00 0.01 0.00 62 1013.7
20260901070126 82 128 0.0 0.0 0.00 0.01 0.00 61 1013.7
20260901070052 82 128 0.0 0.0 0.00 0.01 0.00 61 1013.7
20260901065925 82 128 0.0 0.0 0.00 0.01 0.00 61 1013.7
20260901065827 82 128 0.0 0.0 0.00 0.01 0.00 61 1013.8
20260901065757 82 128 0.0 2.0 0.00 0.01 0.00 61 1013.8
20260901065618 82 128 0.0 2.0 0.00 0.01 0.00 60 1013.7
20260901065520 82 128 0.0 3.0 0.00 0.01 0.00 60 1013.7
20260901065419 82 128 0.0 3.0 0.00 0.01 0.00 60 1013.7
20260901065334 82 129 0.0 3.0 0.00 0.01 0.00 59 1013.7
20260901065242 82 128 0.0 3.0 0.00 0.01 0.00 59 1013.7
20260901065124 82 128 0.0 3.0 0.00 0.01 0.00 59 1013.7
20260901065027 82 128 0.0 3.0 0.00 0.01 0.00 59 1013.8
20260901064927 82 128 0.0 3.0 0.00 0.01 0.00 59 1013.7
20260901064837 82 129 0.0 3.0 0.00 0.01 0.00 59 1013.7
20260901064758 82 128 1.0 3.0 0.00 0.01 0.00 59 1013.7
20260901064645 82 128 1.0 3.0 0.00 0.01 0.00 59 1013.6
20260901064530 82 128 1.0 3.0 0.00 0.01 0.00 59 1013.6
20260901064438 82 129 1.0 3.0 0.00 0.01 0.00 59 1013.6
20260901064320 82 128 1.0 4.0 0.00 0.01 0.00 59 1013.5
20260901064222 82 129 1.0 4.0 0.00 0.01 0.00 60 1013.5
20260901064123 82 128 1.0 4.0 0.00 0.01 0.00 60 1013.5
20260901064033 82 128 1.0 4.0 0.00 0.01 0.00 59 1013.5
20260901064005 82 128 0.0 4.0 0.00 0.01 0.00 60 1013.5
20260901063814 82 128 1.0 4.0 0.00 0.01 0.01 59 1013.5
20260901063745 82 129 1.0 4.0 0.00 0.01 0.01 59 1013.5
20260901063651 83 128 1.0 4.0 0.00 0.01 0.01 59 1013.5
20260901063433 83 128 2.0 4.0 0.00 0.01 0.01 59 1013.6
20260901063335 83 128 2.0 4.0 0.00 0.01 0.01 59 1013.5
20260901063222 83 128 1.0 5.0 0.00 0.01 0.01 59 1013.7
20260901063130 83 128 1.0 5.0 0.00 0.01 0.01 58 1013.6
20260901063031 83 128 1.0 5.0 0.00 0.01 0.01 58 1013.7
20260901063001 83 129 2.0 6.0 0.00 0.01 0.01 58 1013.7
20260901062823 83 128 1.0 6.0 0.00 0.01 0.01 58 1013.7
20260901062725 83 128 0.0 6.0 0.00 0.01 0.01 58 1013.7
20260901062626 83 128 0.0 6.0 0.00 0.01 0.01 58 1013.7
20260901062541 83 128 0.0 6.0 0.00 0.01 0.01 58 1013.7
20260901062421 83 128 1.0 6.0 0.00 0.01 0.01 58 1013.6
20260901062323 83 128 2.0 6.0 0.00 0.01 0.01 58 1013.6
20260901062233 83 129 2.0 6.0 0.00 0.01 0.01 58 1013.6
20260901062135 83 129 3.0 6.0 0.00 0.01 0.01 58 1013.5
20260901062016 83 129 3.0 7.0 0.00 0.01 0.01 58 1013.4
20260901061930 83 129 2.0 7.0 0.00 0.01 0.01 58 1013.4
20260901061831 83 129 2.0 7.0 0.00 0.01 0.01 58 1013.3
20260901061733 83 129 2.0 7.0 0.00 0.01 0.01 58 1013.3
20260901061642 83 129 2.0 7.0 0.00 0.01 0.01 58 1013.4
20260901061516 83 129 3.0 7.0 0.00 0.01 0.01 59 1013.4
20260901061444 83 129 3.0 7.0 0.00 0.01 0.01 59 1013.4
20260901061337 83 129 3.0 7.0 0.00 0.01 0.01 59 1013.4
20260901061220 83 129 3.0 7.0 0.00 0.01 0.01 59 1013.4
20260901061123 83 129 3.0 7.0 0.00 0.01 0.01 59 1013.4
20260901061024 83 129 2.0 5.0 0.00 0.01 0.01 59 1013.4
20260901060934 83 129 1.0 6.0 0.00 0.01 0.01 59 1013.4
20260901060833 83 129 2.0 6.0 0.00 0.01 0.01 58 1013.4
20260901060720 83 129 2.0 6.0 0.00 0.01 0.01 58 1013.3
20260901060626 83 129 3.0 6.0 0.00 0.01 0.01 58 1013.3
20260901060527 83 129 3.0 6.0 0.00 0.01 0.01 58 1013.3
20260901060437 83 129 2.0 7.0 0.00 0.01 0.01 58 1013.3
20260901060319 83 129 2.0 7.0 0.00 0.01 0.01 58 1013.2
20260901060221 83 129 2.0 7.0 0.00 0.01 0.01 58 1013.3
20260901060122 83 129 3.0 7.0 0.00 0.01 0.01 58 1013.2
20260901060106 83 129 3.0 7.0 0.00 0.01 0.01 58 1013.2
20260901055942 83 129 3.0 7.0 0.00 0.01 0.01 58 1013.2
20260901055823 83 129 3.0 7.0 0.00 0.01 0.01 58 1013.2
20260901055744 83 129 3.0 7.0 0.00 0.01 0.01 58 1013.2
20260901055630 83 129 3.0 7.0 0.00 0.01 0.01 58 1013.2
20260901055534 83 129 3.0 7.0 0.00 0.01 0.01 58 1013.2
20260901055501 83 129 3.0 7.0 0.00 0.01 0.01 58 1013.3
20260901055325 83 129 4.0 7.0 0.00 0.01 0.01 58 1013.2
20260901055226 83 129 4.0 7.0 0.00 0.01 0.01 58 1013.4
20260901055138 83 129 3.0 8.0 0.00 0.01 0.01 58 1013.4
20260901055020 83 129 2.0 8.0 0.00 0.01 0.01 57 1013.3
20260901054921 83 129 2.0 8.0 0.00 0.01 0.01 57 1013.3
20260901054823 83 129 3.0 8.0 0.00 0.01 0.01 57 1013.3
20260901054738 83 129 3.0 8.0 0.00 0.01 0.01 57 1013.3
20260901054541 83 129 3.0 8.0 0.00 0.01 0.01 57 1013.2
20260901054422 83 129 3.0 8.0 0.00 0.01 0.01 57 1013.2
20260901054324 83 129 3.0 8.0 0.00 0.01 0.01 57 1013.2
20260901054225 83 129 2.0 7.0 0.00 0.01 0.01 57 1013.2
20260901054139 84 129 2.0 7.0 0.00 0.01 0.01 57 1013.2
20260901054022 84 129 3.0 7.0 0.00 0.01 0.01 57 1013.1
20260901053944 84 129 3.0 7.0 0.00 0.25 0.01 56 1013.2
20260901053833 84 129 3.0 7.0 0.00 0.25 0.01 56 1013.2
20260901053734 84 129 4.0 7.0 0.00 0.25 0.01 56 1013.1
20260901053616 84 129 4.0 7.0 0.00 0.25 0.01 56 1013.1
20260901053525 84 129 3.0 7.0 0.00 0.25 0.01 56 1013.1
20260901053431 84 129 3.0 7.0 0.00 0.25 0.01 56 1013.1
20260901053341 84 129 3.0 7.0 0.00 0.25 0.01 56 1013.1
20260901053242 84 129 4.0 8.0 0.00 0.25 0.01 56 1013.2
20260901053123 84 129 4.0 10.0 0.00 0.25 0.01 56 1013.2
20260901053033 84 129 4.0 10.0 0.00 0.25 0.01 56 1013.2
20260901052935 84 129 3.0 10.0 0.00 0.25 0.01 56 1013.2
20260901052841 84 129 4.0 10.0 0.00 0.25 0.01 55 1013.2
20260901052730 84 129 4.0 10.0 0.00 0.25 0.01 55 1013.3
20260901052633 84 129 3.0 10.0 0.00 0.25 0.01 55 1013.3
20260901052516 84 129 4.0 10.0 0.00 0.25 0.01 55 1013.2
20260901052417 84 130 4.0 10.0 0.00 0.25 0.01 55 1013.2
20260901052327 84 130 4.0 10.0 0.00 0.25 0.01 55 1013.3
20260901052230 84 130 4.0 10.0 0.00 0.25 0.01 56 1013.2
20260901052159 84 130 4.0 9.0 0.00 0.25 0.01 56 1013.2
20260901052020 84 132 3.0 7.0 0.00 0.25 0.01 55 1013.3
20260901051923 84 132 3.0 7.0 0.00 0.25 0.01 55 1013.4
20260901051826 84 132 4.0 7.0 0.00 0.25 0.01 55 1013.4
20260901051736 84 133 3.0 6.0 0.00 0.25 0.01 55 1013.4
20260901051622 84 133 2.0 6.0 0.00 0.25 0.01 55 1013.4
20260901051524 84 133 3.0 6.0 0.00 0.25 0.01 55 1013.4
20260901051454 84 133 3.0 6.0 0.00 0.25 0.01 55 1013.4
20260901051315 84 133 2.0 5.0 0.00 0.25 0.01 55 1013.4
20260901051217 84 133 3.0 5.0 0.00 0.25 0.01 55 1013.5
20260901051127 84 133 2.0 5.0 0.00 0.25 0.01 55 1013.4
20260901051028 84 133 2.0 5.0 0.00 0.25 0.01 54 1013.5
20260901050915 84 133 2.0 5.0 0.00 0.25 0.01 54 1013.4
20260901050818 84 133 2.0 5.0 0.00 0.25 0.01 54 1013.5
20260901050726 84 133 2.0 6.0 0.00 0.25 0.01 54 1013.5
20260901050628 84 133 3.0 6.0 0.00 0.25 0.01 54 1013.4
20260901050557 84 133 3.0 6.0 0.00 0.25 0.01 54 1013.4
20260901050418 84 133 2.0 6.0 0.00 0.25 0.01 54 1013.4
20260901050325 84 133 2.0 6.0 0.00 0.25 0.01 54 1013.4
20260901050226 84 133 3.0 6.0 0.00 0.25 0.01 54 1013.4
20260901050136 84 133 3.0 6.0 0.00 0.25 0.01 54 1013.4
20260901050029 84 133 3.0 6.0 0.00 0.25 0.01 54 1013.3
20260901045919 84 133 3.0 6.0 0.00 0.25 0.01 54 1013.3
20260901045848 84 133 2.0 4.0 0.00 0.25 0.01 54 1013.3
20260901045732 84 133 2.0 4.0 0.00 0.25 0.01 54 1013.3
20260901045701 84 133 2.0 4.0 0.00 0.25 0.01 54 1013.2
20260901045525 84 133 3.0 4.0 0.00 0.25 0.01 54 1013.2
20260901045436 84 133 2.0 4.0 0.00 0.25 0.01 54 1013.2
20260901045317 84 133 2.0 4.0 0.00 0.25 0.01 54 1013.2
20260901045220 84 133 2.0 5.0 0.00 0.25 0.01 54 1013.1
20260901045150 84 133 2.0 5.0 0.00 0.25 0.01 54 1013.1
20260901045015 84 133 1.0 5.0 0.00 0.25 0.01 54 1013.1
20260901044916 84 133 1.0 5.0 0.00 0.25 0.01 54 1013.2
20260901044816 84 133 2.0 5.0 0.00 0.25 0.01 54 1013.2
20260901044734 84 133 1.0 5.0 0.00 0.25 0.01 54 1013.2
20260901044623 84 133 1.0 6.0 0.00 0.25 0.01 54 1013.2
20260901044539 84 133 2.0 6.0 0.00 0.25 0.01 54 1013.1
20260901044433 84 133 2.0 6.0 0.00 0.25 0.01 54 1013.1
20260901044317 84 133 2.0 6.0 0.00 0.25 0.01 54 1013.2
20260901044239 84 133 3.0 6.0 0.00 0.25 0.01 54 1013.1
20260901044126 84 133 3.0 6.0 0.00 0.25 0.01 54 1013.1
20260901044033 84 133 3.0 6.0 0.00 0.25 0.01 54 1013.1
20260901043934 84 133 2.0 6.0 0.00 0.25 0.01 54 1013.1
20260901043815 84 133 3.0 6.0 0.00 0.25 0.01 54 1013.1
20260901043717 84 133 2.0 6.0 0.00 0.25 0.01 54 1013.1
20260901043631 84 133 1.0 6.0 0.00 0.25 0.01 54 1013.1
20260901043533 84 133 1.0 6.0 0.00 0.25 0.01 55 1013.1
20260901043503 84 133 1.0 6.0 0.00 0.25 0.01 55 1013.1
20260901043323 84 133 2.0 6.0 0.00 0.25 0.01 55 1013.1
20260901043234 84 133 2.0 6.0 0.00 0.25 0.01 55 1013.1
20260901043136 84 133 3.0 6.0 0.00 0.25 0.01 55 1013.1
20260901043016 84 133 3.0 6.0 0.00 0.25 0.01 55 1013.0
20260901042945 84 133 2.0 5.0 0.00 0.25 0.01 55 1013.0
20260901042827 84 133 2.0 5.0 0.00 0.25 0.01 55 1013.0
20260901042737 84 133 2.0 5.0 0.00 0.25 0.01 55 1013.0
20260901042620 84 133 1.0 5.0 0.00 0.25 0.01 55 1013.1
20260901042523 84 133 1.0 5.0 0.00 0.25 0.01 55 1013.0
20260901042431 84 133 2.0 5.0 0.00 0.25 0.01 55 1013.0
20260901042334 84 133 3.0 6.0 0.00 0.25 0.01 55 1013.0
20260901042217 84 133 3.0 6.0 0.00 0.25 0.01 55 1013.0
20260901042125 84 133 3.0 6.0 0.00 0.25 0.01 55 1013.0
20260901042055 84 133 2.0 8.0 0.00 0.25 0.01 55 1013.0
20260901041916 84 133 2.0 8.0 0.00 0.25 0.01 55 1013.0
20260901041837 84 133 2.0 8.0 0.00 0.25 0.01 55 1012.9
20260901041726 84 133 3.0 8.0 0.00 0.25 0.01 55 1012.9
20260901041628 84 133 4.0 8.0 0.00 0.25 0.01 55 1012.9
20260901041538 84 134 3.0 8.0 0.00 0.25 0.01 55 1012.9
20260901041424 84 134 3.0 8.0 0.00 0.25 0.01 55 1012.9
20260901041326 84 134 4.0 8.0 0.00 0.25 0.01 55 1013.0
20260901041229 84 134 4.0 8.0 0.00 0.25 0.01 55 1012.9
20260901041117 84 135 3.0 8.0 0.00 0.25 0.01 55 1012.9
20260901041038 84 135 3.0 8.0 0.00 0.25 0.01 55 1013.0
20260901040926 84 135 4.0 8.0 0.00 0.25 0.01 55 1013.0
20260901040834 84 135 4.0 8.0 0.00 0.25 0.01 55 1013.0
20260901040741 84 135 4.0 8.0 0.00 0.25 0.01 55 1013.0
20260901040643 84 136 3.0 8.0 0.00 0.25 0.01 55 1013.0
20260901040522 84 136 4.0 8.0 0.00 0.25 0.01 55 1012.9
20260901040430 84 137 4.0 8.0 0.00 0.25 0.01 55 1012.9
20260901040351 84 139 4.0 8.0 0.00 0.25 0.01 54 1013.0
20260901040221 84 139 3.0 8.0 0.00 0.25 0.01 54 1013.0
20260901040124 84 140 3.0 8.0 0.00 0.25 0.01 54 1012.9
20260901040037 84 140 3.0 8.0 0.00 0.25 0.01 54 1012.9
20260901035935 84 140 4.0 8.0 0.00 0.25 0.01 54 1013.0
20260901035818 84 140 3.0 8.0 0.00 0.25 0.01 54 1013.0
20260901035720 84 140 3.0 8.0 0.00 0.25 0.01 54 1013.0
20260901035649 84 140 3.0 8.0 0.00 0.25 0.01 54 1013.0
20260901035526 84 142 2.0 7.0 0.00 0.25 0.01 54 1013.0
20260901035441 84 142 3.0 7.0 0.00 0.25 0.01 54 1013.0
20260901035324 84 142 3.0 7.0 0.00 0.25 0.01 54 1013.0
20260901035226 84 142 4.0 7.0 0.00 0.25 0.01 54 1013.1
20260901035130 84 143 3.0 7.0 0.00 0.25 0.01 54 1013.0
20260901035038 84 143 3.0 7.0 0.00 0.25 0.01 53 1013.0
20260901034920 84 144 3.0 7.0 0.00 0.25 0.01 54 1013.0
20260901034825 84 144 3.0 7.0 0.00 0.25 0.01 53 1013.0
20260901034756 84 144 3.0 7.0 0.00 0.25 0.01 53 1013.0
20260901034704 84 144 4.0 7.0 0.00 0.25 0.01 54 1013.0
20260901034540 84 144 3.0 7.0 0.00 0.25 0.01 53 1013.0
20260901034510 84 145 2.0 7.0 0.00 0.25 0.01 53 1013.0
20260901034331 84 146 2.0 7.0 0.00 0.25 0.01 53 1013.0
20260901034233 84 146 4.0 7.0 0.00 0.25 0.01 53 1013.0
20260901034140 84 146 4.0 7.0 0.00 0.25 0.01 53 1012.9
20260901034024 84 147 3.0 7.0 0.00 0.25 0.01 53 1012.9
20260901033955 84 149 3.0 6.0 0.00 0.25 0.01 53 1012.9
20260901033816 84 149 4.0 6.0 0.00 0.25 0.01 53 1012.9
20260901033718 84 149 2.0 6.0 0.00 0.25 0.01 53 1013.0
20260901033628 84 149 2.0 5.0 0.00 0.25 0.01 53 1013.0
20260901033527 84 149 2.0 5.0 0.00 0.25 0.01 53 1012.9
20260901033433 84 149 3.0 5.0 0.00 0.25 0.01 53 1012.9
20260901033318 84 149 3.0 5.0 0.00 0.25 0.01 53 1012.9
20260901033220 84 149 2.0 6.0 0.00 0.25 0.01 53 1012.9
20260901033123 84 149 2.0 6.0 0.00 0.25 0.01 53 1012.9
20260901033033 84 149 3.0 6.0 0.00 0.25 0.01 53 1012.9
20260901032935 84 149 3.0 6.0 0.00 0.25 0.01 53 1012.9
20260901032821 84 149 3.0 6.0 0.00 0.25 0.01 53 1012.8
20260901032728 84 149 2.0 7.0 0.00 0.25 0.01 53 1012.8
20260901032630 84 149 3.0 7.0 0.00 0.25 0.01 53 1012.9
20260901032541 84 149 4.0 7.0 0.00 0.25 0.01 53 1012.9
20260901032443 84 150 4.0 7.0 0.00 0.25 0.01 53 1012.9
20260901032323 84 150 3.0 7.0 0.00 0.25 0.01 53 1012.9
20260901032251 84 150 3.0 7.0 0.00 0.25 0.01 53 1012.8
20260901032137 84 150 3.0 7.0 0.00 0.25 0.01 53 1012.8
20260901032043 84 150 4.0 7.0 0.00 0.25 0.01 53 1012.8
20260901031924 84 150 3.0 7.0 0.00 0.25 0.01 53 1012.9
20260901031835 84 151 2.0 6.0 0.00 0.25 0.01 53 1012.9
20260901031734 84 151 3.0 6.0 0.00 0.25 0.01 53 1012.9
20260901031616 84 151 3.0 6.0 0.00 0.25 0.01 53 1012.9
20260901031545 84 151 3.0 6.0 0.00 0.25 0.01 53 1012.8
20260901031454 84 152 2.0 6.0 0.00 0.25 0.01 53 1012.8
20260901031355 84 152 3.0 6.0 0.00 0.25 0.01 53 1012.7
20260901031218 84 152 3.0 6.0 0.00 0.25 0.01 53 1012.6
20260901031128 84 152 3.0 6.0 0.00 0.25 0.01 53 1012.5
20260901031030 84 152 3.0 6.0 0.00 0.25 0.01 53 1012.5
20260901030941 84 153 3.0 6.0 0.00 0.25 0.01 53 1012.5
20260901030841 84 153 3.0 6.0 0.00 0.25 0.01 53 1012.5
20260901030722 84 153 3.0 5.0 0.00 0.25 0.01 53 1012.5
20260901030635 84 153 2.0 5.0 0.00 0.25 0.01 53 1012.5
20260901030517 84 153 2.0 5.0 0.00 0.25 0.01 53 1012.6
20260901030419 84 153 2.0 5.0 0.00 0.25 0.01 53 1012.6
20260901030321 84 153 3.0 5.0 0.00 0.25 0.01 53 1012.6
20260901030229 84 153 3.0 5.0 0.00 0.25 0.01 53 1012.5
20260901030131 85 153 2.0 5.0 0.00 0.25 0.01 53 1012.5
20260901030036 84 153 2.0 5.0 0.00 0.25 0.01 53 1012.5
20260901025925 84 153 2.0 7.0 0.00 0.25 0.01 53 1012.4
20260901025827 84 153 3.0 7.0 0.00 0.25 0.01 53 1012.4
20260901025736 85 153 3.0 7.0 0.00 0.25 0.01 53 1012.4
20260901025619 85 153 3.0 7.0 0.00 0.25 0.01 53 1012.4
20260901025541 85 153 3.0 7.0 0.00 0.25 0.01 53 1012.3
20260901025430 85 153 2.0 7.0 0.00 0.25 0.01 53 1012.3
20260901025316 85 153 2.0 7.0 0.00 0.25 0.01 53 1012.2
20260901025218 85 153 3.0 7.0 0.00 0.25 0.01 53 1012.2
20260901025119 85 153 3.0 7.0 0.00 0.25 0.01 53 1012.2
20260901025027 85 154 2.0 6.0 0.00 0.25 0.01 53 1012.2
20260901024926 85 154 2.0 6.0 0.00 0.25 0.01 53 1012.2
20260901024827 85 155 2.0 5.0 0.00 0.25 0.01 53 1012.2
20260901024742 85 155 2.0 6.0 0.00 0.25 0.01 53 1012.2
20260901024621 85 155 1.0 6.0 0.00 0.25 0.01 53 1012.1
20260901024521 85 155 1.0 6.0 0.00 0.25 0.01 53 1012.1
20260901024450 85 155 2.0 6.0 0.00 0.25 0.01 53 1012.1
20260901024355 85 155 2.0 6.0 0.00 0.25 0.01 53 1012.2
20260901024228 85 155 1.0 6.0 0.00 0.25 0.01 52 1012.2
20260901024137 85 155 1.0 6.0 0.00 0.25 0.01 52 1012.2
20260901024043 85 155 2.0 6.0 0.00 0.25 0.01 52 1012.2
20260901023924 85 155 3.0 6.0 0.00 0.25 0.01 52 1012.3
20260901023854 85 155 2.0 5.0 0.00 0.25 0.01 52 1012.3
20260901023734 85 155 1.0 5.0 0.00 0.25 0.01 52 1012.3
20260901023615 85 155 2.0 6.0 0.00 0.25 0.01 52 1012.2
20260901023525 85 155 2.0 6.0 0.00 0.25 0.01 52 1012.2
20260901023442 85 155 2.0 6.0 0.00 0.25 0.01 52 1012.2
20260901023336 85 155 2.0 6.0 0.00 0.25 0.01 52 1012.2
20260901023218 85 155 3.0 7.0 0.00 0.25 0.01 52 1012.2
20260901023120 85 155 3.0 7.0 0.00 0.25 0.01 52 1012.2
20260901023028 85 155 3.0 7.0 0.00 0.25 0.01 52 1012.2
20260901022930 85 155 3.0 7.0 0.00 0.25 0.01 52 1012.2
20260901022833 85 156 3.0 7.0 0.00 0.25 0.01 52 1012.2
20260901022719 85 156 3.0 7.0 0.00 0.25 0.01 53 1012.1
20260901022647 85 156 3.0 7.0 0.00 0.25 0.01 52 1012.2
20260901022556 85 156 3.0 7.0 0.00 0.25 0.01 53 1012.2
20260901022417 85 157 3.0 6.0 0.00 0.25 0.01 53 1012.1
20260901022320 85 157 3.0 6.0 0.00 0.25 0.01 53 1012.0
20260901022222 85 158 3.0 6.0 0.00 0.25 0.01 53 1012.0
20260901022133 85 158 3.0 6.0 0.00 0.25 0.01 53 1012.0
20260901022019 85 158 4.0 6.0 0.00 0.25 0.01 53 1011.9
20260901021940 85 159 4.0 6.0 0.00 0.25 0.01 53 1012.0
20260901021849 85 160 3.0 5.0 0.00 0.25 0.01 52 1012.0
20260901021728 85 160 2.0 5.0 0.00 0.25 0.01 53 1012.0
20260901021638 86 160 2.0 5.0 0.00 0.25 0.01 53 1012.0
20260901021518 86 161 1.0 5.0 0.00 0.25 0.01 54 1012.0
20260901021420 86 161 2.0 5.0 0.00 0.25 0.01 54 1012.0
20260901021334 86 161 2.0 5.0 0.00 0.25 0.01 54 1012.0
20260901021216 86 161 2.0 5.0 0.00 0.25 0.01 54 1012.0
20260901021117 86 161 2.0 5.0 0.00 0.25 0.01 54 1012.0
20260901021025 86 161 1.0 5.0 0.00 0.25 0.01 55 1012.0
20260901020928 86 161 0.0 4.0 0.00 0.25 0.01 54 1011.9
20260901020830 86 161 1.0 4.0 0.00 0.25 0.01 54 1011.9
20260901020744 86 161 1.0 5.0 0.00 0.25 0.01 54 1012.0
20260901020645 86 161 0.0 5.0 0.00 0.25 0.01 54 1012.0
20260901020533 86 161 1.0 5.0 0.00 0.25 0.01 54 1012.0
20260901020455 86 161 2.0 5.0 0.00 0.25 0.01 54 1012.1
20260901020343 86 161 2.0 5.0 0.00 0.25 0.01 54 1012.1
20260901020224 86 161 2.0 5.0 0.00 0.25 0.01 54 1012.2
20260901020125 86 161 2.0 5.0 0.00 0.25 0.01 53 1012.3
20260901020032 86 161 2.0 5.0 0.00 0.25 0.01 53 1012.3
20260901015922 86 161 1.0 5.0 0.00 0.25 0.01 53 1012.2
20260901015830 86 161 1.0 4.0 0.00 0.25 0.01 53 1012.3
20260901015728 86 161 0.0 4.0 0.00 0.25 0.01 53 1012.3
20260901015638 86 161 0.0 4.0 0.00 0.25 0.01 53 1012.3
20260901015539 86 161 1.0 4.0 0.00 0.25 0.01 53 1012.2
20260901015419 86 161 1.0 4.0 0.00 0.25 0.01 53 1012.3
20260901015334 86 161 1.0 4.0 0.00 0.25 0.01 53 1012.3
20260901015242 86 161 1.0 4.0 0.00 0.25 0.01 53 1012.3
20260901015125 86 161 1.0 4.0 0.00 0.25 0.01 53 1012.2
20260901015026 86 161 2.0 4.0 0.00 0.25 0.01 53 1012.3
20260901014925 86 161 2.0 5.0 0.00 0.25 0.01 53 1012.2
20260901014854 86 162 2.0 5.0 0.00 0.25 0.01 53 1012.2
20260901014734 86 162 2.0 5.0 0.00 0.25 0.01 53 1012.2
20260901014623 86 162 2.0 5.0 0.00 0.25 0.01 53 1012.1
20260901014523 86 162 1.0 5.0 0.00 0.25 0.01 53 1012.1
20260901014423 86 162 1.0 5.0 0.00 0.25 0.01 53 1012.0
20260901014351 86 162 1.0 5.0 0.00 0.25 0.01 53 1012.1
20260901014024 86 162 3.0 5.0 0.00 0.25 0.01 53 1012.1
20260901013926 87 163 2.0 5.0 0.00 0.25 0.01 53 1012.0
20260901013833 86 163 2.0 5.0 0.00 0.25 0.01 53 1012.0
20260901013742 86 163 2.0 6.0 0.00 0.25 0.01 53 1012.0
20260901013625 86 164 2.0 6.0 0.00 0.25 0.01 53 1012.0
20260901013527 86 164 3.0 6.0 0.00 0.25 0.01 53 1012.1
20260901013430 86 165 3.0 6.0 0.00 0.25 0.01 53 1012.1
20260901013339 86 165 3.0 6.0 0.00 0.25 0.01 53 1012.1
20260901013248 86 166 3.0 6.0 0.00 0.25 0.01 53 1012.2
20260901013133 86 169 3.0 6.0 0.00 0.25 0.01 53 1012.2
20260901013015 86 139 2.0 6.0 0.00 0.25 0.01 53 1012.1
20260901012918 86 139 2.0 6.0 0.00 0.25 0.01 54 1012.1
20260901012828 86 139 1.0 5.0 0.00 0.25 0.01 54 1012.1
20260901012728 86 139 1.0 5.0 0.00 0.25 0.01 54 1012.1
20260901012637 86 138 1.0 8.0 0.00 0.25 0.01 54 1012.1
20260901012523 86 134 2.0 8.0 0.00 0.25 0.01 54 1012.1
20260901012424 87 134 2.0 8.0 0.00 0.25 0.01 54 1012.1
20260901012325 87 134 2.0 8.0 0.00 0.25 0.01 54 1012.1
20260901012236 87 134 2.0 8.0 0.00 0.25 0.01 54 1012.1
20260901012118 87 134 2.0 8.0 0.00 0.25 0.01 53 1012.2
20260901012039 87 134 2.0 8.0 0.00 0.25 0.01 53 1012.2
20260901011930 87 134 2.0 8.0 0.00 0.25 0.01 53 1012.1
20260901011833 87 360 3.0 8.0 0.00 0.25 0.01 53 1012.1
20260901011735 87 360 3.0 8.0 0.00 0.25 0.01 53 1012.1
20260901011616 87 360 2.0 6.0 0.00 0.25 0.01 53 1012.2
20260901011523 87 360 2.0 6.0 0.00 0.25 0.01 53 1012.2
20260901011424 87 360 3.0 6.0 0.00 0.25 0.01 53 1012.2
20260901011319 87 360 3.0 6.0 0.00 0.25 0.01 53 1012.2
20260901011220 87 360 3.0 6.0 0.00 0.25 0.01 53 1012.2
20260901011122 87 360 2.0 6.0 0.00 0.25 0.01 53 1012.1
20260901011030 87 360 2.0 7.0 0.00 0.25 0.01 53 1012.1
20260901010931 87 360 2.0 9.0 0.00 0.25 0.01 53 1012.0
20260901010833 87 360 3.0 9.0 0.00 0.25 0.01 52 1012.0
20260901010718 87 360 2.0 9.0 0.00 0.25 0.01 52 1011.9
20260901010644 87 360 2.0 9.0 0.00 0.25 0.01 52 1011.9
20260901010525 88 360 2.0 9.0 0.00 0.25 0.01 52 1011.9
20260901010435 88 360 2.0 9.0 0.00 0.25 0.01 52 1011.9
20260901010317 88 360 4.0 9.0 0.00 0.25 0.01 52 1011.9
20260901010217 88 360 4.0 9.0 0.00 0.25 0.01 52 1011.9
20260901010120 88 360 3.0 8.0 0.00 0.25 0.01 52 1012.0
20260901010046 88 360 4.0 8.0 0.00 0.25 0.01 52 1012.0
20260901005916 88 360 3.0 9.0 0.00 0.25 0.01 52 1011.9
20260901005846 88 360 3.0 9.0 0.00 0.25 0.01 51 1011.9
20260901005727 88 360 4.0 9.0 0.00 0.25 0.01 51 1012.0
20260901005657 88 360 4.0 9.0 0.00 0.25 0.01 51 1012.0
20260901005519 88 145 4.0 9.0 0.00 0.25 0.01 51 1012.1
20260901005441 88 147 4.0 9.0 0.00 0.25 0.01 51 1012.1